<- Previous Day | Today | Next Day ->

All Data for 25 October 2021

 

Time A - D Temp A - D Dew Point A - D Humidity A - D Pressure A - D Wind A - D Wind Dir Gust A - D Rain Rate A - D Rain Total
00:00 13.5 13.0 97 1014.4 5.4 NW 13.6 0.0 0.0
00:01 13.5 13.0 97 1014.3 7.6 SW 13.6 0.0 0.0
00:02 13.5 13.0 97 1014.4 8.3 SW 13.6 0.0 0.0
00:03 13.5 13.0 97 1014.4 7.6 SW 13.6 0.0 0.0
00:04 13.5 13.0 97 1014.3 9.8 SW 13.6 0.0 0.0
00:05 13.5 13.0 97 1014.5 7.6 SSW 13.6 0.0 0.0
00:06 13.5 13.0 97 1014.5 7.6 SSW 13.6 0.0 0.0
00:07 13.5 13.0 97 1014.1 9.8 S 13.0 0.0 0.0
00:08 13.5 13.0 97 1014.4 9.8 S 11.4 0.0 0.0
00:09 13.5 13.0 97 1014.4 9.8 S 9.8 0.0 0.0
00:10 13.5 13.0 97 1014.3 9.8 S 9.8 0.0 0.0
00:11 13.5 13.0 97 1014.5 10.7 NE 10.7 0.0 0.0
00:12 13.5 13.0 97 1014.2 9.8 SSW 10.7 0.0 0.0
00:13 13.5 13.0 97 1014.2 9.8 SW 10.7 0.0 0.0
00:14 13.5 13.0 97 1014.4 9.8 SW 10.7 0.0 0.0
00:15 13.5 13.0 97 1014.3 9.8 S 10.7 0.0 0.0
00:16 13.4 12.9 97 1014.3 9.2 SW 10.7 0.0 0.0
00:17 13.4 12.9 97 1014.4 9.2 S 10.7 0.0 0.0
00:18 13.4 12.9 97 1014.4 6.9 S 10.7 0.0 0.0
00:19 13.4 12.9 97 1014.3 8.3 SW 10.7 0.0 0.0
00:20 13.4 12.9 97 1014.1 11.4 SW 11.4 0.0 0.0
00:21 13.4 12.9 97 1014.3 11.4 SW 11.4 0.0 0.0
00:22 13.4 12.9 97 1014.4 10.7 SW 11.4 0.0 0.0
00:23 13.4 12.9 97 1014.3 9.8 SW 11.4 0.0 0.0
00:24 13.4 12.9 97 1014.6 9.2 SW 11.4 0.0 0.0
00:25 13.4 12.9 97 1014.2 7.6 SW 11.4 0.0 0.0
00:26 13.4 12.9 97 1014.3 6.9 S 11.4 0.0 0.0
00:27 13.4 12.9 97 1014.3 9.8 SW 11.4 0.0 0.0
00:28 13.4 12.9 97 1014.2 9.8 SW 11.4 0.0 0.0
00:29 13.4 12.9 97 1014.3 9.8 S 11.4 0.0 0.0
00:30 13.4 12.9 97 1014.2 8.3 SW 11.4 0.0 0.0
00:31 13.4 12.9 97 1014.2 9.2 S 10.7 0.0 0.0
00:32 13.4 12.9 97 1014.3 9.8 SW 9.8 0.0 0.0
00:33 13.4 12.9 97 1014.2 13.6 SW 13.6 0.0 0.0
00:34 13.4 12.9 97 1014.2 10.7 S 13.6 0.0 0.0
00:35 13.4 12.9 97 1014.3 9.8 SW 13.6 0.0 0.0
00:36 13.4 12.9 97 1014.3 7.6 SW 13.6 0.0 0.0
00:37 13.4 12.9 97 1014.3 7.6 SW 13.6 0.0 0.0
00:38 13.4 12.9 97 1014.1 11.4 SW 13.6 0.0 0.0
00:39 13.4 12.9 97 1014.4 6.9 SW 13.6 0.0 0.0
00:40 13.4 12.9 97 1014.0 9.2 SW 13.6 0.0 0.0
00:41 13.4 12.9 97 1014.3 9.2 S 13.6 0.0 0.0
00:42 13.4 12.9 97 1014.2 8.3 S 13.6 0.0 0.0
00:43 13.4 12.9 97 1014.0 9.8 S 13.6 0.0 0.0
00:45 13.4 12.9 97 1014.2 10.7 S 11.4 0.0 0.0
00:46 13.4 12.9 97 1014.1 10.7 SW 11.4 0.0 0.0
00:47 13.4 12.9 97 1014.4 9.2 SW 11.4 0.0 0.0
00:48 13.4 12.9 97 1014.5 8.3 SE 10.7 0.0 0.0
00:49 13.4 12.9 97 1014.0 7.6 S 10.7 0.0 0.0
00:50 13.4 12.9 97 1014.1 9.2 SW 10.7 0.0 0.0
00:51 13.4 12.9 97 1014.2 9.8 SW 10.7 0.0 0.0
00:52 13.4 12.9 97 1014.3 9.8 SW 10.7 0.0 0.0
00:53 13.4 12.9 97 1014.2 10.7 WSW 10.7 0.0 0.0
00:54 13.4 12.9 97 1014.3 9.2 SW 10.7 0.0 0.0
00:55 13.3 12.8 97 1014.1 6.0 S 10.7 0.0 0.0
00:56 13.4 12.9 97 1014.2 9.2 SW 10.7 0.0 0.0
00:57 13.3 12.8 97 1014.3 9.2 S 10.7 0.0 0.0
00:58 13.3 12.8 97 1014.3 8.3 SW 10.7 0.0 0.0
00:59 13.3 12.8 97 1014.2 6.0 SW 10.7 0.0 0.0
01:00 13.3 12.8 97 1014.2 9.8 SW 10.7 0.0 0.0
01:01 13.3 12.8 97 1014.1 9.8 SW 10.7 0.0 0.0
01:02 13.3 12.8 97 1014.1 9.8 SW 10.7 0.0 0.0
01:03 13.3 12.8 97 1014.3 9.8 SW 9.8 0.0 0.0
01:04 13.3 12.8 97 1014.1 9.8 SW 9.8 0.0 0.0
01:05 13.3 12.8 97 1014.2 9.8 SW 9.8 0.0 0.0
01:06 13.3 12.8 97 1014.1 9.8 SW 9.8 0.0 0.0
01:07 13.3 12.8 97 1014.4 6.9 S 9.8 0.0 0.0
01:08 13.3 12.8 97 1014.3 6.0 SW 9.8 0.0 0.0
01:09 13.3 12.8 97 1014.3 6.0 SW 9.8 0.0 0.0
01:10 13.2 12.7 97 1014.2 9.2 SW 9.8 0.0 0.0
01:11 13.2 12.7 97 1013.9 7.6 SW 9.8 0.0 0.0
01:12 13.3 12.8 97 1014.0 7.6 SW 9.8 0.0 0.0
01:13 13.2 12.7 97 1014.0 7.6 SW 9.8 0.0 0.0
01:14 13.2 12.7 97 1014.0 7.6 S 9.8 0.0 0.0
01:15 13.2 12.7 97 1014.1 10.7 SW 10.7 0.0 0.0
01:16 13.2 12.7 97 1014.0 10.7 SW 10.7 0.0 0.0
01:17 13.2 12.7 97 1014.1 10.7 SW 10.7 0.0 0.0
01:18 13.2 12.7 97 1013.9 8.3 SW 10.7 0.0 0.0
01:19 13.2 12.7 97 1014.1 11.4 S 12.1 0.0 0.0
01:20 13.2 12.7 97 1014.1 9.2 S 12.1 0.0 0.0
01:21 13.2 12.7 97 1013.9 9.2 S 12.1 0.0 0.0
01:22 13.2 12.7 97 1014.0 9.2 SW 12.1 0.0 0.0
01:23 13.2 12.7 97 1014.1 9.2 SW 12.1 0.0 0.0
01:24 13.1 12.6 97 1014.0 7.6 SW 12.1 0.0 0.0
01:25 13.1 12.6 97 1014.1 7.6 S 12.1 0.0 0.0
01:26 13.1 12.6 97 1013.9 6.9 S 12.1 0.0 0.0
01:27 13.1 12.6 97 1014.0 8.3 SSW 12.1 0.0 0.0
01:28 13.1 12.6 97 1014.0 9.2 NW 12.1 0.0 0.0
01:29 13.1 12.6 97 1014.2 9.8 SW 11.4 0.0 0.0
01:30 13.1 12.6 97 1014.1 9.8 SW 9.8 0.0 0.0
01:31 13.1 12.6 97 1014.1 7.6 S 9.8 0.0 0.0
01:32 13.1 12.6 97 1014.1 6.0 SW 9.8 0.0 0.0
01:33 13.1 12.6 97 1014.1 6.0 SW 9.8 0.0 0.0
01:34 13.1 12.6 97 1014.1 6.9 SW 9.8 0.0 0.0
01:35 13.0 12.5 97 1013.9 9.2 SW 9.8 0.0 0.0
01:36 13.0 12.5 97 1014.0 6.0 SW 9.8 0.0 0.0
01:37 13.0 12.5 97 1013.9 6.0 NW 9.8 0.0 0.0
01:38 13.0 12.4 96 1013.9 6.0 SW 9.8 0.0 0.0
01:39 13.0 12.4 96 1014.1 6.9 S 9.8 0.0 0.0
01:40 12.9 12.3 96 1014.2 6.0 SW 9.2 0.0 0.0
01:41 12.9 12.3 96 1014.2 6.9 WSW 9.2 0.0 0.0
01:42 12.9 12.3 96 1014.0 6.9 SW 9.2 0.0 0.0
01:43 12.9 12.3 96 1014.1 6.0 SW 9.2 0.0 0.0
01:44 12.9 12.3 96 1014.3 6.0 SW 9.2 0.0 0.0
01:45 12.8 12.2 96 1014.1 6.9 SW 9.2 0.0 0.0
01:46 12.8 12.2 96 1014.2 6.9 SW 6.9 0.0 0.0
01:47 12.8 12.2 96 1014.1 7.6 SW 7.6 0.0 0.0
01:48 12.8 12.2 96 1014.0 7.6 NW 7.6 0.0 0.0
01:49 12.7 12.1 96 1014.2 6.0 SW 7.6 0.0 0.0
01:50 12.7 12.1 96 1014.1 6.0 SW 7.6 0.0 0.0
01:51 12.7 12.1 96 1014.2 6.0 SW 7.6 0.0 0.0
01:52 12.7 12.1 96 1014.0 5.4 SW 7.6 0.0 0.0
01:53 12.7 12.1 96 1014.0 5.4 W 7.6 0.0 0.0
01:54 12.7 12.1 96 1014.1 5.4 SW 7.6 0.0 0.0
01:55 12.6 12.0 96 1014.1 6.9 S 7.6 0.0 0.0
01:56 12.6 12.0 96 1013.9 4.5 SW 7.6 0.0 0.0
01:57 12.6 12.0 96 1013.9 4.5 SW 7.6 0.0 0.0
01:58 12.6 12.0 96 1014.0 4.5 SW 7.6 0.0 0.0
01:59 12.6 12.0 96 1013.9 6.0 SW 6.9 0.0 0.0
02:00 12.6 12.0 96 1014.0 6.0 SW 6.9 0.0 0.0
02:01 12.6 12.0 96 1014.0 3.8 SW 6.9 0.0 0.0
02:02 12.5 11.9 96 1013.9 5.4 SW 6.9 0.0 0.0
02:03 12.5 11.9 96 1013.9 3.8 S 6.9 0.0 0.0
02:04 12.5 11.9 96 1014.0 3.8 S 6.9 0.0 0.0
02:05 12.5 11.9 96 1013.8 3.1 SW 6.9 0.0 0.0
02:06 12.4 12.4 100 1014.0 4.5 S 6.0 0.0 0.0
02:07 12.4 12.4 100 1014.0 4.5 SW 6.0 0.0 0.0
02:08 12.4 12.4 100 1013.8 3.8 SW 6.0 0.0 0.0
02:09 12.4 12.4 100 1013.9 3.8 SW 6.0 0.0 0.0
02:10 12.3 12.3 100 1014.2 4.5 S 6.0 0.0 0.0
02:11 12.3 12.3 100 1013.9 3.8 SW 6.0 0.0 0.0
02:12 12.3 12.3 100 1013.9 3.8 SW 6.0 0.0 0.0
02:13 12.3 12.2 99 1013.8 3.8 S 4.5 0.0 0.0
02:14 12.3 12.2 99 1013.8 3.8 S 4.5 0.0 0.0
02:15 12.2 12.1 99 1014.0 3.1 SW 4.5 0.0 0.0
02:16 12.2 12.1 99 1014.0 3.1 SSW 4.5 0.0 0.0
02:17 12.2 12.1 99 1013.8 3.1 S 4.5 0.0 0.0
02:18 12.1 12.0 99 1013.9 4.5 SW 4.5 0.0 0.0
02:19 12.1 12.0 99 1014.0 4.5 SW 4.5 0.0 0.0
02:20 12.1 12.0 99 1013.9 3.8 S 4.5 0.0 0.0
02:21 12.0 11.9 99 1013.8 3.1 SW 4.5 0.0 0.0
02:22 12.0 11.9 99 1014.1 2.2 S 4.5 0.0 0.0
02:23 12.0 11.9 99 1013.9 3.1 SSW 4.5 0.0 0.0
02:24 12.0 11.9 99 1013.8 3.1 SW 4.5 0.0 0.0
02:25 12.0 11.9 99 1013.8 3.1 SW 4.5 0.0 0.0
02:26 12.0 11.9 99 1013.8 2.2 SW 4.5 0.0 0.0
02:27 12.0 11.9 99 1013.9 3.1 SW 4.5 0.0 0.0
02:28 12.0 11.9 99 1014.0 2.2 S 4.5 0.0 0.0
02:29 12.0 11.9 99 1014.0 2.2 S 4.5 0.0 0.0
02:30 12.0 11.9 99 1013.8 3.1 SW 3.8 0.0 0.0
02:31 12.0 11.9 99 1014.0 2.2 SW 3.8 0.8 0.1
02:32 12.0 11.9 99 1013.9 3.1 SW 3.8 0.8 0.1
02:33 12.0 11.9 99 1014.0 3.1 SSW 3.8 0.8 0.1
02:34 12.0 11.9 99 1013.8 3.1 S 3.1 0.8 0.1
02:35 12.0 11.9 99 1013.9 3.1 SW 3.1 0.8 0.1
02:36 12.0 11.9 99 1013.9 3.8 S 4.5 0.0 0.1
02:37 12.0 11.9 99 1014.1 3.8 SW 4.5 0.0 0.1
02:38 12.0 11.9 99 1013.9 4.5 SW 4.5 0.0 0.1
02:39 12.0 11.9 99 1014.0 4.5 SW 4.5 0.0 0.1
02:40 12.1 12.0 99 1013.8 3.8 S 4.5 0.0 0.1
02:41 12.1 12.0 99 1013.9 3.8 S 4.5 0.0 0.1
02:42 12.1 12.0 99 1014.0 3.8 S 4.5 0.0 0.1
02:43 12.1 12.0 99 1014.2 3.8 S 4.5 0.0 0.1
02:44 12.1 12.0 99 1013.9 3.8 S 4.5 0.0 0.1
02:45 12.1 12.0 99 1013.8 3.1 SW 4.5 0.0 0.1
02:46 12.2 12.1 99 1014.0 6.0 SW 6.0 0.0 0.1
02:47 12.2 12.1 99 1013.9 6.0 SW 6.0 0.0 0.1
02:48 12.2 12.1 99 1013.8 4.5 SW 6.0 0.0 0.1
02:49 12.2 12.2 100 1014.0 4.5 SW 6.0 0.0 0.1
02:50 12.3 12.3 100 1014.0 5.4 SW 6.0 0.0 0.1
02:51 12.3 12.3 100 1014.0 4.5 S 6.0 0.0 0.1
02:52 12.3 12.3 100 1013.8 6.0 S 6.0 0.0 0.1
02:53 12.3 12.3 100 1013.8 6.0 S 6.0 0.0 0.1
02:54 12.3 12.3 100 1014.0 6.9 SW 6.9 0.0 0.1
02:55 12.4 12.4 100 1014.3 8.3 SW 8.3 0.0 0.1
02:56 12.4 12.4 100 1013.8 6.0 S 8.3 0.0 0.1
02:57 12.4 12.4 100 1014.0 6.0 S 8.3 0.0 0.1
02:58 12.5 11.9 96 1013.9 9.8 S 9.8 0.0 0.1
02:59 12.5 11.9 96 1014.0 8.3 S 9.8 0.0 0.1
03:00 12.5 11.9 96 1013.8 9.8 NE 9.8 0.0 0.1
03:01 12.5 11.9 96 1014.1 9.8 NE 9.8 0.0 0.1
03:02 12.5 11.9 96 1014.0 9.8 NE 9.8 0.0 0.1
03:03 12.6 12.0 96 1014.1 7.6 S 9.8 0.0 0.1
03:04 12.5 11.9 96 1014.0 6.9 SW 9.8 0.0 0.1
03:05 12.5 11.9 96 1013.7 6.0 SW 9.8 0.0 0.1
03:06 12.5 11.9 96 1013.9 6.0 S 9.8 0.0 0.1
03:07 12.5 11.9 96 1013.9 6.0 S 9.8 0.0 0.1
03:08 12.5 11.9 96 1013.8 5.4 SW 9.8 0.0 0.1
03:09 12.5 11.9 96 1013.9 5.4 SW 9.8 0.0 0.1
03:10 12.5 11.9 96 1013.9 6.0 SW 9.8 0.0 0.1
03:11 12.5 11.9 96 1013.9 7.6 S 9.8 0.0 0.1
03:12 12.4 12.4 100 1013.8 6.0 NE 9.8 0.0 0.1
03:13 12.4 12.4 100 1014.0 6.0 S 7.6 0.0 0.1
03:14 12.4 12.4 100 1014.0 4.5 S 7.6 0.0 0.1
03:15 12.4 12.4 100 1013.9 4.5 S 7.6 0.0 0.1
03:16 12.4 12.4 100 1013.8 6.0 S 7.6 0.0 0.1
03:17 12.4 12.4 100 1014.0 6.9 S 7.6 0.0 0.1
03:18 12.4 12.4 100 1013.9 4.5 S 7.6 0.0 0.1
03:19 12.4 12.4 100 1013.9 4.5 SW 7.6 0.0 0.1
03:20 12.4 12.4 100 1013.8 5.4 S 7.6 0.0 0.1
03:21 12.4 12.4 100 1013.8 5.4 S 7.6 0.0 0.1
03:22 12.4 12.4 100 1013.9 6.0 SW 7.6 0.0 0.1
03:23 12.4 12.4 100 1013.8 5.4 SW 7.6 0.0 0.1
03:24 12.4 12.4 100 1013.9 4.5 SW 7.6 0.0 0.1
03:25 12.4 12.4 100 1013.9 6.0 W 7.6 0.0 0.1
03:26 12.4 12.4 100 1013.8 6.0 SW 7.6 0.0 0.1
03:27 12.4 12.4 100 1013.8 5.4 SW 7.6 0.0 0.1
03:28 12.4 12.4 100 1013.8 4.5 SW 7.6 0.0 0.1
03:29 12.4 12.4 100 1013.9 4.5 SW 7.6 0.0 0.1
03:30 12.4 12.4 100 1013.9 6.0 SW 6.0 0.0 0.1
03:31 12.4 12.4 100 1013.7 6.0 SW 6.0 0.0 0.1
03:32 12.4 12.4 100 1014.0 4.5 NE 6.0 0.0 0.1
03:33 12.3 12.3 100 1013.8 4.5 SW 6.0 0.0 0.1
03:34 12.3 12.3 100 1013.9 3.8 SW 6.0 0.0 0.1
03:35 12.3 12.3 100 1014.0 4.5 SW 6.0 0.0 0.1
03:36 12.3 12.3 100 1013.7 3.8 S 6.0 0.0 0.1
03:37 12.3 12.3 100 1014.1 4.5 S 6.0 0.0 0.1
03:38 12.3 12.3 100 1014.0 4.5 SW 6.0 0.0 0.1
03:39 12.3 12.3 100 1013.9 4.5 S 6.0 0.0 0.1
03:40 12.3 12.3 100 1013.8 4.5 NW 6.0 0.0 0.1
03:41 12.3 12.3 100 1013.8 5.4 SW 6.0 0.0 0.1
03:42 12.3 12.3 100 1013.7 4.5 SW 5.4 0.0 0.1
03:43 12.2 12.2 100 1013.9 4.5 S 5.4 0.0 0.1
03:44 12.2 12.2 100 1013.7 4.5 SW 5.4 0.0 0.1
03:45 12.2 12.2 100 1013.8 6.0 SW 6.0 0.0 0.1
03:46 12.2 12.2 100 1013.7 5.4 SW 6.0 0.0 0.1
03:47 12.2 12.2 100 1013.7 5.4 SW 6.0 0.0 0.1
03:48 12.2 12.2 100 1013.8 4.5 SW 6.0 0.0 0.1
03:49 12.2 12.2 100 1013.8 4.5 SW 6.0 0.0 0.1
03:50 12.2 12.2 100 1013.7 3.8 SW 6.0 0.0 0.1
03:51 12.1 12.1 100 1013.5 3.1 S 6.0 0.0 0.1
03:52 12.1 12.1 100 1013.6 3.8 S 6.0 0.0 0.1
03:53 12.1 12.1 100 1013.7 3.8 SW 6.0 0.0 0.1
03:54 12.1 12.1 100 1013.8 3.8 W 6.0 0.0 0.1
03:55 12.0 12.0 100 1013.8 3.8 SW 6.0 0.0 0.1
03:56 12.0 12.0 100 1013.6 5.4 NE 5.4 0.0 0.1
03:57 12.0 12.0 100 1013.6 3.8 SW 5.4 0.0 0.1
03:58 12.0 12.0 100 1013.7 4.5 SW 5.4 0.0 0.1
03:59 12.0 12.0 100 1013.6 3.8 SW 5.4 0.0 0.1
04:00 12.0 12.0 100 1013.8 3.8 SW 5.4 0.0 0.1
04:01 12.0 12.0 100 1013.5 3.8 SW 5.4 0.0 0.1
04:02 12.0 12.0 100 1013.7 3.8 SW 5.4 0.0 0.1
04:03 12.0 12.0 100 1013.7 3.8 SW 5.4 0.0 0.1
04:04 12.0 12.0 100 1013.5 3.8 SW 5.4 0.0 0.1
04:05 12.0 12.0 100 1013.6 3.8 SW 5.4 0.0 0.1
04:06 12.0 12.0 100 1013.7 3.8 SW 5.4 0.0 0.1
04:07 12.0 12.0 100 1013.5 3.8 SW 5.4 0.0 0.1
04:08 12.0 12.0 100 1013.7 3.8 SW 4.5 0.0 0.1
04:09 11.7 11.6 99 1013.7 3.8 S 3.8 0.0 0.1
04:10 11.7 11.6 99 1013.5 3.1 SW 3.8 0.0 0.1
04:11 11.7 11.6 99 1013.5 3.1 WSW 3.8 0.0 0.1
04:12 11.7 11.6 99 1013.4 3.8 SW 3.8 0.0 0.1
04:13 11.6 11.5 99 1013.7 3.1 SW 3.8 0.0 0.1
04:14 11.6 11.5 99 1013.7 3.8 S 3.8 0.0 0.1
04:15 11.6 11.5 99 1013.4 3.8 S 3.8 0.0 0.1
04:16 11.6 11.5 99 1013.6 3.8 S 3.8 0.0 0.1
04:17 11.6 11.5 99 1013.6 3.8 S 3.8 0.0 0.1
04:18 11.5 11.4 99 1013.5 3.8 SW 3.8 0.0 0.1
04:19 11.5 11.4 99 1013.5 3.1 SW 3.8 0.0 0.1
04:20 11.5 11.4 99 1013.3 3.1 SW 3.8 0.0 0.1
04:21 11.5 11.4 99 1013.4 3.1 S 3.8 0.0 0.1
04:22 11.5 11.4 99 1013.4 3.8 S 3.8 0.0 0.1
04:23 11.5 11.4 99 1013.5 3.1 S 3.8 0.0 0.1
04:24 11.4 11.3 99 1013.5 2.2 S 3.8 0.0 0.1
04:25 11.4 11.3 99 1013.4 2.2 S 3.8 0.0 0.1
04:26 11.4 11.3 99 1013.3 2.2 SW 3.8 0.0 0.1
04:27 11.4 11.3 99 1013.5 2.2 S 3.8 0.0 0.1
04:28 11.4 11.3 99 1013.5 3.1 S 3.8 0.0 0.1
04:29 11.4 11.3 99 1013.6 3.1 S 3.8 0.0 0.1
04:30 11.4 11.3 99 1013.6 3.1 S 3.8 0.0 0.1
04:31 11.3 11.2 99 1013.5 3.1 S 3.8 0.0 0.1
04:32 11.3 11.2 99 1013.2 3.1 SW 3.8 0.0 0.1
04:33 11.3 11.2 99 1013.5 2.2 SW 3.1 0.0 0.1
04:34 11.3 11.2 99 1013.5 2.2 S 3.1 0.0 0.1
04:35 11.3 11.2 99 1013.5 2.2 S 3.8 0.0 0.1
04:36 11.3 11.2 99 1013.5 3.1 S 3.8 0.0 0.1
04:37 11.3 11.2 99 1013.4 2.2 SW 3.8 0.0 0.1
04:38 11.3 11.2 99 1013.3 3.1 SW 3.8 0.0 0.1
04:39 11.3 11.2 99 1013.5 3.1 SW 3.8 0.0 0.1
04:40 11.2 11.1 99 1013.5 3.8 S 3.8 0.0 0.1
04:41 11.2 11.1 99 1013.7 3.1 S 3.8 0.0 0.1
04:42 11.2 11.1 99 1013.3 3.1 SW 3.8 0.0 0.1
04:43 11.2 11.1 99 1013.4 3.1 S 3.8 0.0 0.1
04:44 11.2 11.1 99 1013.5 3.1 SW 3.8 0.0 0.1
04:45 11.2 11.1 99 1013.5 3.1 SW 3.8 0.0 0.1
04:46 11.2 11.1 99 1013.4 3.1 S 3.8 0.0 0.1
04:47 11.2 11.1 99 1013.4 3.8 S 3.8 0.0 0.1
04:48 11.2 11.1 99 1013.7 3.8 SW 3.8 0.0 0.1
04:49 11.2 11.1 99 1013.3 3.1 SW 3.8 0.0 0.1
04:50 11.2 11.1 99 1013.4 3.1 S 3.8 0.0 0.1
04:51 11.2 11.1 99 1013.4 3.1 S 3.8 0.0 0.1
04:52 11.3 11.2 99 1013.5 3.1 SW 3.8 0.0 0.1
04:53 11.3 11.2 99 1013.5 3.1 S 3.8 0.0 0.1
04:54 11.3 11.2 99 1013.5 3.8 SW 3.8 0.0 0.1
04:55 11.3 11.2 99 1013.4 3.1 SW 3.8 0.0 0.1
04:56 11.3 11.2 99 1013.4 3.1 SW 3.8 0.0 0.1
04:57 11.3 11.2 99 1013.4 3.8 SW 3.8 0.0 0.1
04:58 11.3 11.2 99 1013.4 3.8 SW 3.8 0.0 0.1
04:59 11.3 11.2 99 1013.6 3.1 SW 3.8 0.0 0.1
05:00 11.3 11.2 99 1013.4 2.2 SW 3.8 0.0 0.1
05:01 11.3 11.2 99 1013.4 2.2 SW 3.8 0.0 0.1
05:02 11.3 11.2 99 1013.3 2.2 SW 3.8 0.0 0.1
05:03 11.3 11.2 99 1013.5 2.2 SW 3.8 0.0 0.1
05:04 11.3 11.2 99 1013.5 2.2 SW 3.8 0.0 0.1
05:05 11.3 11.2 99 1013.5 2.2 SW 3.8 0.0 0.1
05:06 11.4 11.3 99 1013.4 3.8 S 3.8 0.0 0.1
05:07 11.4 11.3 99 1013.4 3.8 S 3.8 0.0 0.1
05:08 11.5 11.4 99 1013.3 3.8 SW 3.8 0.0 0.1
05:09 11.5 11.4 99 1013.5 3.8 SW 3.8 0.0 0.1
05:10 11.5 11.4 99 1013.5 4.5 S 4.5 0.0 0.1
05:11 11.5 11.4 99 1013.5 4.5 SW 4.5 0.0 0.1
05:12 11.6 11.5 99 1013.6 4.5 SW 4.5 0.0 0.1
05:13 11.6 11.5 99 1013.6 4.5 SW 4.5 0.0 0.1
05:14 11.6 11.5 99 1013.6 4.5 SW 4.5 0.0 0.1
05:15 11.6 11.6 100 1013.3 5.4 SW 5.4 0.0 0.1
05:16 11.6 11.6 100 1013.6 6.9 S 6.9 0.0 0.1
05:17 11.7 11.7 100 1013.4 6.9 SW 6.9 0.0 0.1
05:18 11.7 11.7 100 1013.4 8.3 SW 8.3 0.0 0.1
05:19 11.8 11.8 100 1013.5 5.4 S 8.3 0.0 0.1
05:20 11.8 11.8 100 1013.5 5.4 SE 8.3 0.0 0.1
05:21 11.9 11.9 100 1013.5 6.0 NW 8.3 0.0 0.1
05:22 11.9 11.9 100 1013.6 6.0 SW 8.3 0.0 0.1
05:23 11.9 11.9 100 1013.6 6.9 NW 8.3 0.0 0.1
05:24 12.0 12.0 100 1013.5 9.2 SW 9.2 0.0 0.1
05:25 12.0 12.0 100 1013.4 9.2 SW 9.2 0.0 0.1
05:26 12.1 12.1 100 1013.6 7.6 SW 9.2 0.0 0.1
05:27 12.1 12.1 100 1013.5 7.6 S 9.2 0.0 0.1
05:28 12.1 12.1 100 1013.4 6.9 SW 9.2 0.0 0.1
05:29 12.2 12.2 100 1013.7 5.4 SW 9.2 0.0 0.1
05:30 12.2 12.2 100 1013.7 6.9 SW 9.2 0.0 0.1
05:31 12.2 12.2 100 1013.7 7.6 SW 9.2 0.0 0.1
05:32 12.2 12.2 100 1013.7 8.3 SW 9.2 0.0 0.1
05:33 12.2 12.2 100 1013.6 6.9 SW 9.2 0.0 0.1
05:34 12.3 12.3 100 1013.6 9.8 SW 9.8 0.0 0.1
05:35 12.3 12.3 100 1013.6 12.1 S 12.1 0.0 0.1
05:36 12.3 12.3 100 1013.6 8.3 SW 12.1 0.0 0.1
05:37 12.3 12.3 100 1013.6 6.9 NE 12.1 0.0 0.1
05:38 12.3 12.3 100 1013.5 8.3 SW 12.1 0.0 0.1
05:39 12.3 12.3 100 1013.6 8.3 NW 12.1 0.0 0.1
05:40 12.3 12.3 100 1013.5 8.3 W 12.1 0.0 0.1
05:41 12.3 12.3 100 1013.5 8.3 W 12.1 0.0 0.1
05:42 12.3 12.3 100 1013.5 9.8 S 12.1 0.0 0.1
05:43 12.3 12.3 100 1013.7 9.2 SW 12.1 0.0 0.1
05:44 12.3 12.3 100 1013.5 9.2 SW 12.1 0.0 0.1
05:45 12.3 12.3 100 1013.6 8.3 SW 12.1 0.0 0.1
05:46 12.3 12.3 100 1013.6 8.3 SW 12.1 0.0 0.1
05:47 12.3 12.3 100 1013.6 9.8 SW 9.8 0.0 0.1
05:48 12.3 12.3 100 1013.6 11.4 SSW 11.4 0.0 0.1
05:49 12.3 12.3 100 1013.8 9.8 S 11.4 0.0 0.1
05:50 12.3 12.3 100 1013.8 10.7 SW 11.4 0.0 0.1
05:51 12.3 12.3 100 1013.7 9.2 SW 11.4 0.0 0.1
05:52 12.3 12.3 100 1013.7 9.2 NW 11.4 0.0 0.1
05:53 12.3 12.3 100 1013.8 8.3 S 11.4 0.0 0.1
05:54 12.3 12.3 100 1013.9 8.3 S 11.4 0.0 0.1
05:55 12.3 12.3 100 1013.7 7.6 SW 11.4 0.0 0.1
05:56 12.3 12.3 100 1013.8 8.3 SW 11.4 0.0 0.1
05:57 12.3 12.3 100 1013.6 7.6 SW 11.4 0.0 0.1
05:58 12.3 12.3 100 1013.8 9.2 WSW 11.4 0.0 0.1
05:59 12.3 12.3 100 1014.0 8.3 SW 11.4 0.0 0.1
06:00 12.3 12.3 100 1013.7 8.3 SW 10.7 0.0 0.1
06:01 12.3 12.3 100 1013.7 8.3 SW 9.2 0.0 0.1
06:02 12.3 12.3 100 1013.7 8.3 SW 9.2 0.0 0.1
06:03 12.3 12.3 100 1013.7 8.3 SW 9.2 0.0 0.1
06:04 12.3 12.3 100 1013.8 8.3 SW 9.2 0.0 0.1
06:05 12.4 12.4 100 1013.8 9.8 SW 9.8 0.0 0.1
06:06 12.4 12.4 100 1013.9 6.9 S 9.8 0.0 0.1
06:07 12.4 12.4 100 1013.9 8.3 W 9.8 0.0 0.1
06:08 12.3 12.3 100 1013.8 5.4 SW 9.8 0.0 0.1
06:09 12.3 12.3 100 1013.8 5.4 SW 9.8 0.0 0.1
06:10 12.3 12.3 100 1013.6 8.3 SW 9.8 0.0 0.1
06:11 12.3 12.3 100 1013.7 7.6 SW 9.8 0.0 0.1
06:12 12.3 12.3 100 1013.7 7.6 SW 9.8 0.0 0.1
06:13 12.3 12.3 100 1013.6 7.6 S 9.8 0.0 0.1
06:14 12.3 12.3 100 1013.8 7.6 NW 9.8 0.0 0.1
06:15 12.3 12.3 100 1013.7 7.6 SW 9.8 0.0 0.1
06:16 12.3 12.3 100 1013.8 5.4 SW 8.3 0.0 0.1
06:17 12.3 12.3 100 1013.8 5.4 SW 8.3 0.0 0.1
06:18 12.3 12.3 100 1013.6 6.0 WNW 8.3 0.0 0.1
06:19 12.2 12.2 100 1013.7 6.0 S 8.3 0.0 0.1
06:20 12.2 12.2 100 1013.7 6.0 WSW 7.6 0.0 0.1
06:21 12.2 12.2 100 1013.8 6.9 S 7.6 0.0 0.1
06:22 12.2 12.2 100 1013.7 6.9 SW 7.6 0.0 0.1
06:23 12.1 12.1 100 1013.8 6.0 SW 7.6 0.0 0.1
06:24 12.1 12.1 100 1013.8 6.0 SW 7.6 0.0 0.1
06:25 12.1 12.1 100 1013.6 6.0 NW 7.6 0.0 0.1
06:26 12.1 12.1 100 1013.6 6.0 NW 6.9 0.0 0.1
06:27 12.0 12.0 100 1013.8 6.0 NW 6.9 0.0 0.1
06:28 12.0 12.0 100 1013.9 5.4 SW 6.9 0.0 0.1
06:29 12.0 12.0 100 1013.8 4.5 NW 6.9 0.0 0.1
06:31 12.0 12.0 100 1013.7 4.5 SW 6.9 0.0 0.1
06:32 12.0 12.0 100 1013.7 5.4 SW 6.9 0.0 0.1
06:33 12.0 12.0 100 1013.8 7.6 SW 7.6 0.0 0.1
06:34 12.0 12.0 100 1013.7 9.8 SW 9.8 0.0 0.1
06:35 12.0 12.0 100 1013.7 7.6 SW 9.8 0.0 0.1
06:36 12.0 12.0 100 1013.7 11.4 SW 11.4 0.0 0.1
06:37 12.0 12.0 100 1013.7 11.4 SW 11.4 0.0 0.1
06:38 12.0 12.0 100 1013.7 11.4 SW 11.4 0.0 0.1
06:39 12.0 12.0 100 1013.7 5.4 SW 11.4 0.0 0.1
06:40 12.0 12.0 100 1013.7 9.2 SW 11.4 0.0 0.1
06:41 12.0 12.0 100 1013.7 9.2 SW 11.4 0.0 0.1
06:42 12.0 12.0 100 1013.8 8.3 WSW 11.4 0.0 0.1
06:43 12.0 12.0 100 1013.7 9.2 S 11.4 0.0 0.1
06:44 12.0 12.0 100 1013.7 8.3 SW 11.4 0.0 0.1
06:45 12.0 12.0 100 1013.7 6.0 SW 11.4 0.0 0.1
06:46 12.0 12.0 100 1013.7 5.4 W 11.4 0.0 0.1
06:47 12.0 12.0 100 1013.6 5.4 SW 11.4 0.0 0.1
06:48 12.0 12.0 100 1013.6 6.0 SW 9.2 0.0 0.1
06:49 12.0 12.0 100 1013.9 6.0 SW 9.2 0.0 0.1
06:50 12.0 12.0 100 1013.7 5.4 SW 9.2 0.0 0.1
06:51 12.0 12.0 100 1013.7 5.4 S 9.2 0.0 0.1
06:52 12.0 12.0 100 1013.7 6.9 NW 9.2 0.0 0.1
06:53 11.9 11.9 100 1013.7 6.0 SW 9.2 0.0 0.1
06:54 11.9 11.9 100 1013.9 5.4 SW 8.3 0.0 0.1
06:55 11.9 11.9 100 1013.8 6.0 SW 8.3 0.0 0.1
06:56 11.9 11.9 100 1013.7 6.0 SW 6.9 0.0 0.1
06:57 11.8 11.8 100 1013.8 8.3 W 8.3 0.0 0.1
06:58 11.8 11.8 100 1013.7 4.5 SW 8.3 0.0 0.1
06:59 11.8 11.8 100 1013.6 6.0 SW 8.3 0.0 0.1
07:00 11.7 11.7 100 1013.9 3.8 SW 8.3 0.0 0.1
07:01 11.7 11.7 100 1013.6 3.8 SW 8.3 0.0 0.1
07:02 11.7 11.7 100 1013.7 3.8 SW 8.3 0.0 0.1
07:03 11.7 11.7 100 1013.6 3.8 SW 8.3 0.0 0.1
07:04 11.7 11.7 100 1013.7 3.8 SW 8.3 0.0 0.1
07:05 11.7 11.7 100 1013.7 3.8 SW 8.3 0.0 0.1
07:06 11.6 11.5 99 1013.6 5.4 S 8.3 0.0 0.1
07:07 11.5 11.4 99 1013.8 4.5 WSW 8.3 0.0 0.1
07:08 11.5 11.4 99 1013.7 5.4 SW 6.0 0.0 0.1
07:09 11.5 11.4 99 1013.5 5.4 SW 6.0 0.0 0.1
07:10 11.5 11.4 99 1013.7 4.5 SW 5.4 0.0 0.1
07:11 11.4 11.3 99 1013.6 4.5 SW 5.4 0.0 0.1
07:12 11.4 11.3 99 1013.7 4.5 SW 5.4 0.0 0.1
07:13 11.3 11.2 99 1013.8 3.8 S 5.4 0.0 0.1
07:14 11.3 11.2 99 1013.7 3.1 SW 5.4 0.0 0.1
07:15 11.3 11.2 99 1013.9 4.5 SW 5.4 0.0 0.1
07:16 11.2 11.1 99 1013.6 4.5 SW 5.4 0.0 0.1
07:17 11.2 11.1 99 1013.6 4.5 NW 5.4 0.0 0.1
07:18 11.2 11.1 99 1013.7 4.5 SW 5.4 0.0 0.1
07:19 11.2 11.1 99 1013.8 4.5 SW 5.4 0.0 0.1
07:20 11.1 11.0 99 1013.7 3.8 SW 5.4 0.0 0.1
07:21 11.1 11.0 99 1014.1 5.4 SW 5.4 0.0 0.1
07:22 11.1 11.0 99 1013.8 5.4 SW 5.4 0.0 0.1
07:23 11.0 10.9 99 1013.9 3.8 SW 5.4 0.8 0.1
07:24 11.0 10.9 99 1013.7 4.5 W 5.4 0.8 0.1
07:25 11.0 10.9 99 1013.9 3.8 NW 5.4 0.8 0.1
07:26 11.0 10.9 99 1013.8 3.1 SW 5.4 0.8 0.1
07:27 10.9 10.8 99 1013.8 3.8 SW 5.4 0.8 0.1
07:28 10.9 10.8 99 1013.7 3.8 S 5.4 0.0 0.1
07:29 10.8 10.7 99 1013.8 4.5 SW 5.4 0.0 0.1
07:30 10.8 10.7 99 1013.8 3.8 NW 5.4 0.0 0.1
07:31 10.8 10.7 99 1013.8 2.2 SW 5.4 0.0 0.1
07:32 10.8 10.7 99 1014.0 3.1 SW 4.5 0.0 0.1
07:33 10.8 10.7 99 1014.0 3.1 SW 4.5 0.0 0.1
07:34 10.7 10.6 99 1013.9 2.2 SW 4.5 0.0 0.1
07:35 10.7 10.6 99 1013.8 2.2 SW 4.5 0.0 0.1
07:36 10.7 10.6 99 1013.9 2.2 SW 4.5 0.0 0.1
07:37 10.7 10.6 99 1014.0 2.2 SW 4.5 0.0 0.1
07:38 10.7 10.6 99 1013.7 3.1 SW 4.5 0.0 0.1
07:39 10.6 10.5 99 1014.0 2.2 SW 4.5 0.0 0.1
07:40 10.6 10.5 99 1014.0 3.1 SW 3.8 0.0 0.1
07:41 10.5 10.4 99 1013.7 3.8 SW 3.8 0.0 0.1
07:42 10.5 10.4 99 1013.9 3.8 SW 3.8 0.0 0.1
07:43 10.5 10.4 99 1013.9 2.2 NW 3.8 0.0 0.1
07:44 10.4 10.3 99 1014.0 3.1 SW 3.8 0.0 0.1
07:45 10.4 10.3 99 1013.9 2.2 SW 3.8 0.0 0.1
07:46 10.4 10.3 99 1014.0 2.2 SW 3.8 0.0 0.1
07:47 10.4 10.3 99 1013.9 2.2 SW 3.8 0.0 0.1
07:48 10.4 10.3 99 1013.9 2.2 SW 3.8 0.0 0.1
07:49 10.4 10.3 99 1013.9 2.2 NW 3.8 0.0 0.1
07:50 10.4 10.3 99 1013.9 2.2 SW 3.8 0.0 0.1
07:51 10.3 10.2 99 1013.9 2.2 SW 3.8 0.0 0.1
07:52 10.3 10.2 99 1013.9 1.6 SW 3.8 0.0 0.1
07:53 10.3 10.2 99 1013.7 1.6 S 3.1 0.0 0.1
07:54 10.3 10.2 99 1013.7 2.2 S 3.1 0.0 0.1
07:55 10.3 10.2 99 1013.8 2.2 SW 2.2 0.0 0.1
07:56 10.3 10.2 99 1013.8 1.6 SW 2.2 0.0 0.1
07:57 10.3 10.2 99 1013.8 1.6 SW 2.2 0.0 0.1
07:58 10.3 10.2 99 1013.8 2.2 S 2.2 0.0 0.1
07:59 10.3 10.2 99 1014.0 2.2 SW 2.2 0.0 0.1
08:00 10.3 10.2 99 1013.9 1.6 SSW 2.2 0.0 0.1
08:01 10.3 10.2 99 1014.0 1.6 SSW 2.2 0.0 0.1
08:02 10.3 10.2 99 1014.0 1.6 SSW 2.2 0.0 0.1
08:03 10.3 10.2 99 1013.8 1.6 SSW 2.2 0.0 0.1
08:04 10.3 10.2 99 1013.8 1.6 SSW 2.2 0.0 0.1
08:05 10.3 10.2 99 1014.0 1.6 SSW 2.2 0.0 0.1
08:06 10.3 10.2 99 1013.8 1.6 SSW 2.2 0.0 0.1
08:07 10.4 10.3 99 1013.9 2.2 SW 2.2 0.0 0.1
08:08 10.4 10.3 99 1014.0 2.2 S 2.2 0.0 0.1
08:09 10.4 10.3 99 1013.9 1.6 SW 2.2 0.0 0.1
08:10 10.4 10.3 99 1013.8 2.2 SW 2.2 0.0 0.1
08:11 10.4 10.3 99 1014.0 2.2 SW 2.2 0.0 0.1
08:12 10.5 10.4 99 1014.1 1.6 SW 2.2 0.0 0.1
08:13 10.4 10.3 99 1014.2 1.6 SW 2.2 0.0 0.1
08:14 10.5 10.4 99 1014.0 2.2 SW 2.2 0.0 0.1
08:15 10.5 10.4 99 1014.0 2.2 SW 2.2 0.0 0.1
08:16 10.5 10.4 99 1014.2 2.2 S 2.2 0.0 0.1
08:17 10.5 10.4 99 1013.9 2.2 S 2.2 0.0 0.1
08:18 10.5 10.4 99 1014.1 1.6 NW 2.2 0.0 0.1
08:19 10.6 10.5 99 1014.0 1.6 SW 2.2 0.0 0.1
08:20 10.6 10.5 99 1014.1 1.6 SW 2.2 0.0 0.1
08:21 10.6 10.5 99 1014.0 3.1 W 3.1 0.0 0.1
08:22 10.6 10.5 99 1014.0 3.8 SW 3.8 0.0 0.1
08:23 10.7 10.6 99 1014.2 2.2 SW 3.8 0.0 0.1
08:24 10.7 10.6 99 1014.1 3.1 SW 3.8 0.0 0.1
08:25 10.8 10.7 99 1014.0 3.1 SW 3.8 0.0 0.1
08:26 10.8 10.7 99 1014.0 3.1 SW 3.8 0.0 0.1
08:27 10.8 10.7 99 1014.1 3.1 SW 3.8 0.0 0.1
08:28 10.9 10.8 99 1014.2 3.1 SW 3.8 0.0 0.1
08:29 10.9 10.8 99 1014.1 3.1 SW 3.8 0.0 0.1
08:30 10.9 10.8 99 1014.1 3.1 SW 3.8 0.0 0.1
08:31 11.0 10.9 99 1014.2 3.8 SW 3.8 0.0 0.1
08:32 11.0 10.9 99 1014.1 3.8 SW 3.8 0.0 0.1
08:33 11.0 10.9 99 1014.1 4.5 SW 4.5 0.0 0.1
08:34 11.1 11.0 99 1014.3 3.8 SW 4.5 0.0 0.1
08:35 11.1 11.0 99 1014.3 3.1 S 4.5 0.0 0.1
08:36 11.2 11.1 99 1014.2 3.1 SW 4.5 0.0 0.1
08:37 11.2 11.1 99 1014.2 3.1 SW 4.5 0.0 0.1
08:38 11.3 11.2 99 1014.2 3.1 S 4.5 0.0 0.1
08:39 11.3 11.2 99 1014.4 3.1 SW 4.5 0.0 0.1
08:40 11.3 11.2 99 1014.3 3.1 SW 4.5 0.0 0.1
08:41 11.4 11.3 99 1014.3 3.1 SW 4.5 0.0 0.1
08:42 11.4 11.3 99 1014.4 3.1 SW 4.5 0.0 0.1
08:43 11.4 11.3 99 1014.4 3.1 SW 3.8 0.0 0.1
08:44 11.4 11.3 99 1014.3 3.1 SW 3.8 0.0 0.1
08:45 11.5 11.4 99 1014.4 3.8 S 3.8 0.0 0.1
08:46 11.5 11.4 99 1014.4 3.1 SW 3.8 0.0 0.1
08:47 11.6 11.5 99 1014.4 5.4 S 7.6 0.0 0.1
08:48 11.6 11.5 99 1014.5 3.8 SW 7.6 0.0 0.1
08:49 11.6 11.5 99 1014.2 4.5 SW 7.6 0.0 0.1
08:50 11.6 11.5 99 1014.5 4.5 SW 7.6 0.0 0.1
08:51 11.6 11.5 99 1014.4 4.5 S 7.6 0.0 0.1
08:52 11.7 11.6 99 1014.5 5.4 SW 7.6 0.0 0.1
08:53 11.6 11.5 99 1014.6 5.4 SW 7.6 0.0 0.1
08:54 11.6 11.5 99 1014.7 4.5 WSW 7.6 0.0 0.1
08:55 11.6 11.5 99 1014.8 4.5 WSW 7.6 0.0 0.1
08:56 11.6 11.5 99 1014.6 5.4 SW 7.6 0.0 0.1
08:57 11.6 11.5 99 1014.6 6.0 SW 6.0 0.0 0.1
08:58 11.6 11.5 99 1014.6 6.0 SW 6.0 0.0 0.1
08:59 11.6 11.5 99 1014.7 6.0 WSW 6.0 0.0 0.1
09:00 11.6 11.6 100 1014.7 6.9 SW 6.9 0.0 0.1
09:01 11.6 11.6 100 1014.6 6.9 SW 6.9 0.0 0.1
09:02 11.6 11.6 100 1014.5 6.9 SW 6.9 0.0 0.1
09:03 11.6 11.6 100 1014.8 6.9 SW 6.9 0.0 0.1
09:04 11.6 11.6 100 1014.8 6.9 SW 6.9 0.0 0.1
09:05 11.6 11.6 100 1014.9 6.9 SW 6.9 0.0 0.1
09:06 11.7 11.7 100 1014.7 6.9 SW 6.9 0.0 0.1
09:07 11.7 11.7 100 1014.6 5.4 SW 6.9 0.0 0.1
09:08 11.7 11.7 100 1014.6 4.5 W 6.9 0.0 0.1
09:09 11.7 11.7 100 1014.7 4.5 W 6.9 0.0 0.1
09:10 11.7 11.7 100 1014.7 8.3 SW 8.3 0.0 0.1
09:11 11.7 11.7 100 1014.7 8.3 SW 8.3 0.0 0.1
09:12 11.7 11.7 100 1014.9 7.6 SW 8.3 0.0 0.1
09:13 11.7 11.7 100 1014.8 6.0 SW 8.3 0.0 0.1
09:14 11.7 11.7 100 1014.7 6.0 WSW 8.3 0.0 0.1
09:15 11.8 11.8 100 1015.0 6.9 SW 8.3 0.0 0.1
09:16 11.8 11.8 100 1015.0 9.2 SW 9.2 0.0 0.1
09:17 11.8 11.8 100 1014.9 8.3 SW 9.2 0.0 0.1
09:18 11.8 11.8 100 1014.7 7.6 W 9.2 0.0 0.1
09:19 11.9 11.9 100 1015.0 7.6 SW 9.8 0.0 0.1
09:20 11.9 11.9 100 1014.9 6.9 SW 9.8 0.0 0.1
09:21 11.9 11.9 100 1014.8 7.6 SW 9.8 0.0 0.1
09:22 11.9 11.9 100 1014.8 7.6 SW 9.8 0.0 0.1
09:23 12.0 12.0 100 1015.0 6.9 SW 9.8 0.0 0.1
09:24 12.0 12.0 100 1014.8 6.9 SW 9.8 0.0 0.1
09:25 12.0 12.0 100 1014.8 8.3 SW 9.8 0.0 0.1
09:26 12.0 12.0 100 1014.9 6.0 SW 9.8 0.0 0.1
09:27 12.0 12.0 100 1015.0 6.0 SW 9.8 0.0 0.1
09:28 12.1 12.1 100 1014.7 6.0 SW 9.8 0.0 0.1
09:29 12.1 12.1 100 1015.0 6.0 SW 8.3 0.0 0.1
09:30 12.1 12.1 100 1015.0 6.9 SW 8.3 0.0 0.1
09:31 12.1 12.1 100 1015.1 6.9 SW 8.3 0.0 0.1
09:32 12.1 12.1 100 1015.0 6.9 SW 8.3 0.0 0.1
09:33 12.2 12.2 100 1015.2 7.6 SW 8.3 0.0 0.1
09:34 12.2 12.2 100 1015.2 6.9 SW 8.3 0.0 0.1
09:35 12.2 12.2 100 1015.2 6.9 SW 8.3 0.0 0.1
09:36 12.3 12.3 100 1015.0 8.3 W 8.3 0.0 0.1
09:37 12.3 12.3 100 1015.1 7.6 NW 8.3 0.0 0.1
09:38 12.3 12.3 100 1015.1 7.6 NW 8.3 0.0 0.1
09:39 12.4 12.4 100 1015.1 5.4 NW 8.3 0.0 0.1
09:40 12.4 12.4 100 1015.1 6.0 W 8.3 0.0 0.1
09:41 12.4 12.4 100 1015.1 6.0 W 8.3 0.0 0.1
09:42 12.4 12.4 100 1015.1 6.0 W 8.3 0.0 0.1
09:43 12.5 12.0 97 1015.2 4.5 NNW 8.3 0.0 0.1
09:44 12.4 12.4 100 1015.1 5.4 NW 8.3 0.0 0.1
09:45 12.4 12.4 100 1015.1 5.4 NW 8.3 0.0 0.1
09:46 12.4 12.4 100 1015.0 6.9 NW 8.3 0.0 0.1
09:47 12.4 12.4 100 1014.8 7.6 SW 7.6 0.0 0.1
09:48 12.4 12.4 100 1014.9 7.6 SW 7.6 0.0 0.1
09:49 12.4 12.4 100 1015.0 5.4 NW 7.6 0.0 0.1
09:50 12.4 12.4 100 1015.1 3.8 NW 7.6 0.0 0.1
09:51 12.4 12.4 100 1015.1 6.0 NW 7.6 0.0 0.1
09:52 12.3 12.3 100 1015.1 6.9 SW 7.6 0.0 0.1
09:53 12.3 12.3 100 1015.1 6.9 SW 7.6 0.0 0.1
09:54 12.3 12.3 100 1014.9 6.0 NE 7.6 0.0 0.1
09:55 12.3 12.3 100 1015.1 6.0 NE 7.6 0.0 0.1
09:56 12.3 12.3 100 1015.1 5.4 NW 7.6 0.0 0.1
09:57 12.3 12.2 99 1015.0 5.4 SW 7.6 0.0 0.1
09:58 12.3 12.2 99 1015.0 5.4 WNW 7.6 0.0 0.1
09:59 12.3 12.2 99 1015.1 3.8 SW 6.9 0.0 0.1
10:00 12.3 12.2 99 1015.2 3.1 SW 6.9 0.0 0.1
10:01 12.3 12.2 99 1015.1 3.1 SW 6.9 0.0 0.1
10:02 12.3 12.2 99 1015.2 3.1 SW 6.9 0.0 0.1
10:03 12.3 12.2 99 1015.2 3.8 NW 6.9 0.0 0.1
10:04 12.3 12.2 99 1015.3 4.5 WSW 6.0 0.0 0.1
10:05 12.3 12.2 99 1015.1 4.5 NW 6.0 0.0 0.1
10:06 12.2 12.1 99 1015.2 3.1 NW 5.4 0.0 0.1
10:07 12.2 12.1 99 1015.0 3.1 NW 5.4 0.0 0.1
10:08 12.2 12.1 99 1015.2 3.8 NW 4.5 0.0 0.1
10:09 12.2 12.1 99 1015.2 3.8 NW 4.5 0.0 0.1
10:10 12.2 12.1 99 1015.2 3.8 NW 4.5 0.0 0.1
10:11 12.2 12.1 99 1015.2 3.8 WNW 4.5 0.0 0.1
10:12 12.2 11.9 98 1015.2 3.1 NW 4.5 0.0 0.1
10:13 12.2 11.9 98 1015.0 3.1 SW 4.5 0.0 0.1
10:14 12.1 11.8 98 1015.0 3.8 NW 4.5 0.0 0.1
10:15 12.1 11.8 98 1015.1 3.1 NW 4.5 0.0 0.1
10:16 12.1 11.8 98 1015.1 3.8 NW 3.8 0.0 0.1
10:17 12.1 11.8 98 1015.0 4.5 NW 4.5 0.0 0.1
10:18 12.1 11.8 98 1015.1 3.1 SW 4.5 0.0 0.1
10:19 12.1 11.6 97 1015.0 3.1 WSW 4.5 0.0 0.1
10:20 12.1 11.6 97 1015.1 3.8 ESE 4.5 0.0 0.1
10:21 12.1 11.6 97 1015.2 3.1 NW 4.5 0.0 0.1
10:22 12.1 11.6 97 1015.1 3.1 NW 4.5 0.0 0.1
10:23 12.1 11.6 97 1015.4 3.1 SW 4.5 0.0 0.1
10:24 12.1 11.6 97 1015.3 3.8 NW 4.5 0.0 0.1
10:25 12.1 11.6 97 1015.2 3.8 NW 4.5 0.0 0.1
10:26 12.1 11.6 97 1015.2 3.8 NW 4.5 0.0 0.1
10:27 12.1 11.6 97 1015.3 3.8 WNW 4.5 0.0 0.1
10:28 12.2 11.7 97 1015.0 3.8 NW 4.5 0.0 0.1
10:29 12.2 11.7 97 1015.3 4.5 SW 4.5 0.0 0.1
10:30 12.2 11.7 97 1015.3 4.5 NW 4.5 0.0 0.1
10:31 12.2 11.7 97 1015.3 4.5 SW 4.5 0.0 0.1
10:32 12.3 11.8 97 1015.2 4.5 NW 4.5 0.0 0.1
10:33 12.3 11.8 97 1015.3 3.8 SW 4.5 0.0 0.1
10:34 12.4 11.9 97 1015.3 6.0 SW 6.0 0.0 0.1
10:35 12.5 11.4 93 1015.4 5.4 W 6.0 0.0 0.1
10:36 12.6 11.5 93 1015.2 8.3 S 9.2 0.0 0.1
10:37 12.6 11.5 93 1015.4 9.2 SW 9.2 0.0 0.1
10:38 12.6 11.5 93 1015.3 9.2 SW 9.2 0.0 0.1
10:39 12.6 11.5 93 1015.2 6.0 NW 9.2 0.0 0.1
10:40 12.7 11.6 93 1015.3 8.3 N 9.2 0.0 0.1
10:41 12.7 11.6 93 1015.3 8.3 N 9.2 0.0 0.1
10:42 12.7 11.6 93 1015.1 6.0 SW 9.2 0.0 0.1
10:43 12.8 11.7 93 1015.2 4.5 SW 9.2 0.0 0.1
10:44 12.8 11.7 93 1015.2 6.0 WSW 9.2 0.0 0.1
10:45 12.8 11.7 93 1015.3 6.0 SW 9.2 0.0 0.1
10:46 12.9 11.8 93 1015.2 6.9 SW 9.2 0.0 0.1
10:47 12.9 11.8 93 1015.2 6.9 NW 9.2 0.0 0.1
10:48 12.9 11.8 93 1015.2 5.4 NW 9.2 0.0 0.1
10:49 13.0 11.9 93 1015.4 7.6 SW 8.3 0.0 0.1
10:50 13.0 11.9 93 1015.4 6.0 SW 8.3 0.0 0.1
10:51 13.0 11.9 93 1015.1 6.9 SW 7.6 0.0 0.1
10:52 13.0 11.9 93 1015.3 6.9 NW 7.6 0.0 0.1
10:53 13.0 11.9 93 1015.2 6.9 NW 7.6 0.0 0.1
10:54 13.0 11.9 93 1015.2 6.9 NW 7.6 0.0 0.1
10:55 13.1 12.0 93 1015.1 7.6 NW 7.6 0.0 0.1
10:56 13.1 12.0 93 1015.2 7.6 W 7.6 0.0 0.1
10:57 13.1 12.0 93 1015.3 5.4 SW 7.6 0.0 0.1
10:58 13.1 12.0 93 1015.2 4.5 NW 7.6 0.0 0.1
10:59 13.1 12.0 93 1015.1 9.8 SW 9.8 0.0 0.1
11:00 13.2 12.1 93 1015.4 11.4 W 11.4 0.0 0.1
11:01 13.2 12.1 93 1015.2 11.4 W 11.4 0.0 0.1
11:02 13.2 12.1 93 1015.2 11.4 W 11.4 0.0 0.1
11:03 13.2 12.1 93 1015.3 11.4 NW 11.4 0.0 0.1
11:04 13.2 12.1 93 1015.1 7.6 NW 11.4 0.0 0.1
11:05 13.2 12.1 93 1015.4 9.8 NW 11.4 0.0 0.1
11:06 13.2 12.1 93 1015.2 9.8 SW 11.4 0.0 0.1
11:07 13.2 12.1 93 1015.3 10.7 NW 11.4 0.0 0.1
11:08 13.1 12.0 93 1015.2 9.8 NE 11.4 0.0 0.1
11:09 13.1 11.8 92 1015.4 8.3 SW 11.4 0.0 0.1
11:10 13.1 11.8 92 1015.4 8.3 SW 11.4 0.0 0.1
11:11 13.1 11.8 92 1015.4 6.0 NW 11.4 0.0 0.1
11:12 13.1 11.8 92 1015.2 6.0 NW 11.4 0.0 0.1
11:13 13.1 11.8 92 1015.6 6.9 NW 11.4 0.0 0.1
11:14 13.1 11.8 92 1015.3 6.9 W 10.7 0.0 0.1
11:15 13.1 11.8 92 1015.4 7.6 W 10.7 0.0 0.1
11:16 13.2 11.9 92 1015.4 6.0 SW 10.7 0.0 0.1
11:17 13.3 12.0 92 1015.5 6.0 S 10.7 0.0 0.1
11:18 13.3 12.0 92 1015.3 6.0 S 9.8 0.0 0.1
11:19 13.5 12.2 92 1015.5 6.9 SW 8.3 0.0 0.1
11:20 13.7 12.4 92 1015.4 11.4 NE 11.4 0.0 0.1
11:21 13.8 12.5 92 1015.4 7.6 W 11.4 0.0 0.1
11:22 13.9 12.6 92 1015.5 7.6 W 11.4 0.0 0.1
11:23 14.0 12.7 92 1015.4 11.4 W 11.4 0.0 0.1
11:24 14.0 12.7 92 1015.3 11.4 NE 11.4 0.0 0.1
11:25 14.0 12.6 91 1015.4 6.9 SW 11.4 0.0 0.1
11:26 14.1 12.7 91 1015.4 6.9 W 11.4 0.0 0.1
11:27 14.2 12.6 90 1015.4 9.8 SW 11.4 0.0 0.1
11:28 14.2 12.6 90 1015.3 8.3 W 11.4 0.0 0.1
11:29 14.2 12.4 89 1015.4 8.3 SW 11.4 0.0 0.1
11:30 14.3 12.3 88 1015.4 9.8 W 11.4 0.0 0.1
11:31 14.4 12.1 86 1015.4 8.3 SW 11.4 0.0 0.1
11:32 14.5 12.0 85 1015.4 8.3 W 11.4 0.0 0.1
11:33 14.6 11.9 84 1015.5 9.2 SW 11.4 0.0 0.1
11:34 14.6 11.9 84 1015.5 7.6 SW 9.8 0.0 0.1
11:35 14.7 11.8 83 1015.6 9.8 W 9.8 0.0 0.1
11:36 14.7 11.8 83 1015.5 6.9 W 9.8 0.0 0.1
11:37 14.7 11.8 83 1015.4 6.9 SW 9.8 0.0 0.1
11:38 14.8 11.8 82 1015.5 6.9 SW 9.8 0.0 0.1
11:39 14.8 11.8 82 1015.4 7.6 SW 9.8 0.0 0.1
11:40 14.9 11.9 82 1015.6 9.8 W 9.8 0.0 0.1
11:41 14.9 11.9 82 1015.5 7.6 W 9.8 0.0 0.1
11:42 15.0 12.0 82 1015.5 8.3 W 9.8 0.0 0.1
11:43 15.1 12.1 82 1015.6 9.8 SW 9.8 0.0 0.1
11:44 15.1 12.1 82 1015.5 9.8 SW 9.8 0.0 0.1
11:45 15.1 12.1 82 1015.6 9.8 WSW 9.8 0.0 0.1
11:46 15.1 11.9 81 1015.5 7.6 SW 9.8 0.0 0.1
11:47 15.0 11.8 81 1015.6 9.8 SW 9.8 0.0 0.1
11:48 15.0 11.6 80 1015.6 8.3 SW 9.8 0.0 0.1
11:49 15.0 11.6 80 1015.6 7.6 W 9.8 0.0 0.1
11:50 15.0 11.6 80 1015.8 7.6 W 9.8 0.0 0.1
11:51 15.0 11.6 80 1015.6 8.3 W 9.8 0.0 0.1
11:52 15.0 11.6 80 1015.8 6.0 W 9.8 0.0 0.1
11:53 15.1 11.7 80 1015.7 6.9 WSW 9.8 0.0 0.1
11:54 15.1 11.7 80 1015.7 6.9 WSW 9.8 0.0 0.1
11:55 15.1 11.7 80 1015.6 8.3 SW 9.8 0.0 0.1
11:56 15.2 11.8 80 1015.5 9.8 S 9.8 0.0 0.1
11:57 15.2 11.8 80 1015.6 9.8 S 9.8 0.0 0.1
11:58 15.2 11.8 80 1015.5 9.2 W 9.8 0.0 0.1
11:59 15.2 11.8 80 1015.5 9.2 N 9.8 0.0 0.1
12:00 15.2 11.8 80 1015.6 9.2 W 9.8 0.0 0.1
12:01 15.2 11.8 80 1015.6 9.2 W 9.8 0.0 0.1
12:02 15.2 11.8 80 1015.7 9.2 W 9.8 0.0 0.1
12:03 15.3 11.9 80 1015.6 9.2 SW 9.8 0.0 0.1
12:04 15.3 11.9 80 1015.8 9.2 S 9.8 0.0 0.1
12:05 15.4 12.0 80 1015.8 10.7 SW 10.7 0.0 0.1
12:06 15.4 12.0 80 1015.6 10.7 W 10.7 0.0 0.1
12:07 15.5 12.1 80 1015.8 10.7 SW 10.7 0.0 0.1
12:08 15.5 12.1 80 1015.5 7.6 SW 10.7 0.0 0.1
12:09 15.5 12.1 80 1015.5 7.6 SW 10.7 0.0 0.1
12:10 15.5 12.1 80 1015.8 10.7 SW 10.7 0.0 0.1
12:11 15.5 11.9 79 1015.8 12.1 SW 12.1 0.0 0.1
12:12 15.4 11.8 79 1015.8 9.2 W 12.1 0.0 0.1
12:13 15.4 11.8 79 1015.6 7.6 SW 12.1 0.0 0.1
12:14 15.5 11.9 79 1015.6 8.3 W 12.1 0.0 0.1
12:15 15.5 11.9 79 1015.7 12.1 SW 12.1 0.0 0.1
12:16 15.6 12.0 79 1015.6 7.6 SW 12.1 0.0 0.1
12:17 15.7 12.1 79 1015.8 15.2 W 15.2 0.0 0.1
12:18 15.7 12.1 79 1015.8 15.2 WSW 15.2 0.0 0.1
12:19 15.7 12.1 79 1015.8 9.8 S 15.2 0.0 0.1
12:20 15.8 12.2 79 1015.6 14.5 W 15.2 0.0 0.1
12:21 15.8 12.2 79 1015.6 13.6 W 15.2 0.0 0.1
12:22 15.8 12.0 78 1015.7 13.6 SW 15.2 0.0 0.1
12:23 15.7 11.9 78 1015.5 9.8 W 15.2 0.0 0.1
12:24 15.7 11.9 78 1015.6 6.9 W 15.2 0.0 0.1
12:25 15.7 11.9 78 1015.7 10.7 SW 15.2 0.0 0.1
12:26 15.7 11.9 78 1015.6 10.7 W 15.2 0.0 0.1
12:27 15.6 11.8 78 1015.8 11.4 WSW 15.2 0.0 0.1
12:28 15.5 11.7 78 1015.7 10.7 W 15.2 0.0 0.1
12:29 15.5 11.7 78 1015.7 8.3 SW 14.5 0.0 0.1
12:30 15.4 11.6 78 1015.7 10.7 W 14.5 0.0 0.1
12:31 15.3 11.5 78 1015.7 6.9 SW 13.6 0.0 0.1
12:32 15.2 11.4 78 1015.8 8.3 W 13.6 0.0 0.1
12:33 15.1 11.3 78 1015.6 6.9 W 11.4 0.0 0.1
12:34 15.1 11.5 79 1015.8 6.9 SW 11.4 0.0 0.1
12:35 15.0 11.4 79 1015.7 7.6 SW 11.4 0.0 0.1
12:36 14.9 11.3 79 1015.6 6.9 SW 11.4 0.0 0.1
12:37 14.8 11.2 79 1015.7 8.3 SW 11.4 0.0 0.1
12:38 14.8 11.2 79 1015.7 8.3 SW 10.7 0.0 0.1
12:39 14.7 11.1 79 1015.9 7.6 SW 10.7 0.0 0.1
12:40 14.7 11.1 79 1015.7 9.2 SW 10.7 0.0 0.1
12:41 14.6 11.0 79 1015.6 7.6 W 9.2 0.0 0.1
12:42 14.6 11.0 79 1015.7 7.6 W 9.2 0.0 0.1
12:43 14.6 11.0 79 1015.7 9.8 SSW 9.8 0.0 0.1
12:44 14.6 11.0 79 1015.5 9.8 SSW 9.8 0.0 0.1
12:45 14.8 11.4 80 1015.5 7.6 SW 9.8 0.0 0.1
12:46 14.9 11.5 80 1015.6 7.6 S 9.8 0.0 0.1
12:47 14.9 11.5 80 1015.6 9.8 SW 9.8 0.0 0.1
12:48 15.0 11.6 80 1015.6 9.8 SW 9.8 0.0 0.1
12:49 15.0 11.6 80 1015.5 9.2 SW 9.8 0.0 0.1
12:50 15.2 11.8 80 1015.7 9.2 SW 9.8 0.0 0.1
12:51 15.2 11.8 80 1015.6 12.1 SW 12.1 0.0 0.1
12:52 15.3 11.9 80 1015.7 9.8 SW 12.1 0.0 0.1
12:53 15.3 11.9 80 1015.5 9.8 SW 12.1 0.0 0.1
12:54 15.3 11.9 80 1015.5 9.8 SW 12.1 0.0 0.1
12:55 15.3 11.7 79 1015.6 11.4 SW 13.6 0.0 0.1
12:56 15.3 11.7 79 1015.5 9.2 SW 13.6 0.0 0.1
12:57 15.3 11.7 79 1015.4 9.2 SW 13.6 0.0 0.1
12:58 15.3 11.7 79 1015.6 10.7 W 13.6 0.0 0.1
12:59 15.3 11.7 79 1015.7 10.7 SW 13.6 0.0 0.1
13:00 15.3 11.7 79 1015.7 9.2 SW 13.6 0.0 0.1
13:01 15.3 11.7 79 1015.5 9.2 SW 13.6 0.0 0.1
13:02 15.3 11.7 79 1015.5 9.2 SW 13.6 0.0 0.1
13:03 15.5 11.9 79 1015.6 11.4 S 13.6 0.0 0.1
13:04 15.6 12.0 79 1015.7 9.8 W 13.6 0.0 0.1
13:05 15.6 12.0 79 1015.4 13.0 SW 13.0 0.0 0.1
13:06 15.7 12.1 79 1015.6 13.6 W 13.6 0.0 0.1
13:07 15.7 12.1 79 1015.7 13.6 W 13.6 0.0 0.1
13:08 15.9 12.3 79 1015.6 11.4 SW 13.6 0.0 0.1
13:09 15.9 12.3 79 1015.6 11.4 SW 13.6 0.0 0.1
13:10 16.0 12.4 79 1015.8 11.4 SW 13.6 0.0 0.1
13:11 16.1 12.3 78 1015.4 11.4 W 13.6 0.0 0.1
13:12 16.2 12.4 78 1015.8 11.4 SW 13.6 0.0 0.1
13:13 16.2 12.4 78 1015.7 16.8 S 16.8 0.0 0.1
13:14 16.3 12.5 78 1015.5 16.8 SW 16.8 0.0 0.1
13:15 16.4 12.8 79 1015.6 9.2 SW 16.8 0.0 0.1
13:16 16.5 12.9 79 1015.5 10.7 W 16.8 0.0 0.1
13:17 16.5 12.9 79 1015.7 13.0 SW 16.8 0.0 0.1
13:18 16.5 12.9 79 1015.6 13.0 SW 16.8 0.0 0.1
13:20 16.3 12.5 78 1015.4 16.8 S 16.8 0.0 0.1
13:21 16.3 12.5 78 1015.7 16.8 S 16.8 0.0 0.1
13:22 16.1 12.1 77 1015.7 17.4 SW 17.4 0.0 0.1
13:23 16.1 12.1 77 1015.8 17.4 SW 17.4 0.0 0.1
13:24 15.8 11.6 76 1015.6 13.6 SW 17.4 0.0 0.1
13:25 15.7 11.5 76 1015.8 13.0 W 17.4 0.0 0.1
13:26 15.7 11.7 77 1015.7 13.6 WSW 17.4 0.0 0.1
13:27 15.7 11.7 77 1015.6 13.6 SW 17.4 0.0 0.1
13:28 15.6 11.8 78 1015.3 13.6 S 17.4 0.0 0.1
13:29 15.6 11.8 78 1015.6 11.4 SW 17.4 0.0 0.1
13:30 15.5 11.7 78 1015.6 12.1 W 17.4 0.0 0.1
13:31 15.4 11.6 78 1015.6 13.0 SW 17.4 0.0 0.1
13:32 15.4 11.6 78 1015.7 13.0 SW 17.4 0.0 0.1
13:33 15.3 11.5 78 1015.8 15.2 S 17.4 0.0 0.1
13:34 15.2 11.4 78 1015.7 12.1 SW 15.2 0.0 0.1
13:35 15.0 11.4 79 1015.9 10.7 SW 15.2 0.0 0.1
13:36 14.9 11.3 79 1015.5 14.5 W 15.2 0.0 0.1
13:37 14.9 11.3 79 1015.8 12.1 SW 15.2 0.0 0.1
13:38 14.8 11.2 79 1015.7 13.6 S 15.2 0.0 0.1
13:39 14.8 11.2 79 1015.4 15.2 W 15.2 0.0 0.1
13:40 14.7 11.1 79 1015.6 15.2 SW 15.2 0.0 0.1
13:41 14.6 11.0 79 1015.6 15.9 SSW 15.9 0.0 0.1
13:42 14.6 11.0 79 1015.6 15.9 SSW 15.9 0.0 0.1
13:43 14.5 10.9 79 1015.7 9.8 W 15.9 0.0 0.1
13:44 14.4 10.8 79 1015.7 9.8 SW 15.9 0.0 0.1
13:45 14.4 10.8 79 1015.6 9.8 W 15.9 0.0 0.1
13:46 14.3 10.7 79 1015.5 11.4 SW 15.9 0.0 0.1
13:47 14.2 10.8 80 1015.9 12.1 SW 15.9 1.5 0.3
13:48 14.2 10.8 80 1015.4 11.4 SW 15.9 1.5 0.3
13:49 14.1 10.7 80 1015.7 7.6 S 15.9 1.5 0.3
13:50 14.1 10.7 80 1015.6 9.8 S 15.9 1.5 0.3
13:51 14.0 10.8 81 1015.6 8.3 SW 15.9 3.0 0.4
13:52 14.2 11.2 82 1015.6 9.8 SW 13.0 1.5 0.4
13:53 14.3 11.5 83 1015.2 15.2 S 15.2 1.5 0.4
13:54 14.3 11.6 84 1015.5 15.2 SW 15.2 2.3 0.4
13:55 14.4 11.7 84 1015.6 19.0 SW 19.0 2.3 0.4
13:56 14.6 12.1 85 1015.2 13.0 SW 19.0 0.8 0.4
13:57 14.6 12.1 85 1015.2 13.0 SW 19.0 0.8 0.4
13:58 14.7 12.2 85 1015.4 13.6 S 19.0 0.8 0.4
13:59 14.8 12.3 85 1015.5 14.5 SW 19.0 0.0 0.4
14:00 14.8 12.1 84 1015.5 13.6 S 19.0 0.0 0.4
14:01 14.8 12.1 84 1015.5 13.6 S 19.0 0.0 0.4
14:02 14.8 12.1 84 1015.4 13.6 S 19.0 0.0 0.4
14:03 14.8 12.1 84 1015.5 13.6 S 19.0 0.0 0.4
14:04 14.8 12.1 84 1015.4 13.6 S 19.0 0.0 0.4
14:05 15.0 12.0 82 1015.5 18.3 W 19.0 0.0 0.4
14:06 15.0 12.0 82 1015.5 9.8 W 18.3 0.0 0.4
14:07 15.0 12.0 82 1015.5 13.6 SW 18.3 0.0 0.4
14:08 15.0 12.0 82 1015.6 13.6 SW 18.3 0.0 0.4
14:09 15.1 12.1 82 1015.5 13.6 SW 18.3 0.0 0.4
14:10 15.2 12.2 82 1015.5 13.0 SW 18.3 0.0 0.4
14:11 15.2 12.0 81 1015.5 12.1 SW 18.3 0.0 0.4
14:12 15.2 12.0 81 1015.4 16.8 W 18.3 0.0 0.4
14:13 15.2 12.0 81 1015.4 16.8 W 18.3 0.0 0.4
14:14 15.3 11.9 80 1015.6 16.8 SW 18.3 0.0 0.4
14:15 15.3 11.9 80 1015.4 12.1 SW 18.3 0.0 0.4
14:16 15.3 11.9 80 1015.4 16.8 W 16.8 0.0 0.4
14:17 15.3 11.7 79 1015.4 16.8 S 16.8 0.0 0.4
14:18 15.3 11.7 79 1015.5 13.6 NNE 16.8 0.0 0.4
14:19 15.3 11.9 80 1015.4 13.0 W 16.8 0.0 0.4
14:20 15.4 12.0 80 1015.3 13.6 SW 16.8 0.0 0.4
14:21 15.4 12.0 80 1015.6 13.0 S 16.8 0.0 0.4
14:22 15.4 12.0 80 1015.4 13.0 SW 16.8 0.0 0.4
14:23 15.4 12.0 80 1015.5 16.8 SW 16.8 0.0 0.4
14:24 15.3 11.7 79 1015.5 10.7 S 16.8 0.0 0.4
14:25 15.3 11.9 80 1015.5 12.1 W 16.8 0.0 0.4
14:26 15.3 11.9 80 1015.4 13.0 SW 16.8 0.0 0.4
14:27 15.3 11.9 80 1015.5 15.2 SW 16.8 0.0 0.4
14:28 15.4 12.0 80 1015.3 9.8 SW 16.8 0.0 0.4
14:29 15.5 12.1 80 1015.4 9.2 SW 16.8 0.0 0.4
14:30 15.6 12.4 81 1015.3 10.7 SW 16.8 0.0 0.4
14:31 15.7 12.5 81 1015.4 9.8 S 16.8 0.0 0.4
14:32 15.8 12.4 80 1015.4 13.0 SW 16.8 0.0 0.4
14:33 15.9 12.5 80 1015.3 13.0 SW 16.8 0.0 0.4
14:34 15.9 12.5 80 1015.3 11.4 SW 15.2 0.0 0.4
14:35 15.9 12.5 80 1015.2 13.6 SW 15.2 0.0 0.4
14:36 15.9 12.3 79 1015.3 18.3 SW 18.3 0.0 0.4
14:37 15.7 11.9 78 1015.4 13.0 W 18.3 0.0 0.4
14:38 15.6 11.8 78 1015.5 11.4 SW 18.3 0.0 0.4
14:39 15.6 11.6 77 1015.4 12.1 S 18.3 0.0 0.4
14:40 15.5 11.5 77 1015.4 9.8 W 18.3 0.0 0.4
14:41 15.5 11.7 78 1015.4 9.8 W 18.3 0.0 0.4
14:42 15.5 11.7 78 1015.6 13.0 W 18.3 0.0 0.4
14:43 15.5 11.7 78 1015.6 13.0 SW 18.3 0.0 0.4
14:44 15.3 11.5 78 1015.5 9.2 SW 18.3 0.0 0.4
14:45 15.3 11.5 78 1015.5 9.2 SW 18.3 0.0 0.4
14:46 15.3 11.5 78 1015.5 9.8 SW 18.3 0.0 0.4
14:47 15.1 11.3 78 1015.4 10.7 W 13.0 0.0 0.4
14:48 15.0 11.2 78 1015.5 12.1 S 13.0 0.0 0.4
14:49 15.0 11.2 78 1015.4 9.8 SSW 13.0 0.0 0.4
14:50 14.9 11.1 78 1015.4 9.2 W 13.0 0.0 0.4
14:51 14.8 11.2 79 1015.4 12.1 SW 13.0 0.0 0.4
14:52 14.8 11.2 79 1015.5 12.1 SW 13.0 0.0 0.4
14:53 14.7 10.9 78 1015.3 12.1 NW 13.0 0.0 0.4
14:54 14.6 10.8 78 1015.3 10.7 NW 12.1 0.0 0.4
14:55 14.5 10.7 78 1015.3 10.7 SW 12.1 0.0 0.4
14:56 14.4 10.8 79 1015.4 11.4 S 12.1 0.0 0.4
14:57 14.4 10.8 79 1015.6 9.2 W 12.1 0.0 0.4
14:58 14.4 10.8 79 1015.3 9.2 W 12.1 0.0 0.4
14:59 14.4 10.8 79 1015.5 11.4 W 12.1 0.0 0.4
15:00 14.3 10.7 79 1015.4 15.2 W 15.2 0.0 0.4
15:01 14.3 10.7 79 1015.4 15.2 W 15.2 0.0 0.4
15:02 14.3 10.7 79 1015.5 15.2 W 15.2 0.0 0.4
15:03 14.3 10.7 79 1015.6 11.4 W 15.2 0.0 0.4
15:04 14.3 10.7 79 1015.5 15.2 S 15.2 0.0 0.4
15:05 14.4 10.8 79 1015.6 11.4 W 15.2 0.0 0.4
15:06 14.5 11.1 80 1015.4 13.0 W 15.2 0.0 0.4
15:07 14.7 11.3 80 1015.3 15.2 W 15.2 0.0 0.4
15:08 14.8 11.4 80 1015.4 15.2 SW 15.2 0.0 0.4
15:09 15.0 11.6 80 1015.7 19.0 SW 19.0 0.0 0.4
15:10 15.1 11.7 80 1015.5 18.3 SW 19.0 0.0 0.4
15:11 15.2 11.8 80 1015.6 12.1 SW 19.0 0.0 0.4
15:12 15.2 11.6 79 1015.3 19.7 SW 19.7 0.0 0.4
15:13 15.1 11.5 79 1015.6 13.0 SW 19.7 0.0 0.4
15:14 15.0 11.4 79 1015.2 12.1 W 19.7 0.0 0.4
15:15 15.0 11.2 78 1015.7 15.2 SW 19.7 0.0 0.4
15:16 14.8 11.0 78 1015.4 15.2 W 19.7 0.0 0.4
15:17 14.8 10.8 77 1015.4 13.6 SW 19.7 0.0 0.4
15:18 14.7 10.7 77 1015.5 9.8 W 19.7 0.0 0.4
15:19 14.7 10.7 77 1015.6 9.8 W 19.7 0.0 0.4
15:20 14.7 10.9 78 1015.6 16.8 SW 19.7 0.0 0.4
15:21 14.8 10.8 77 1015.6 20.6 SW 20.6 0.0 0.4
15:22 14.8 10.8 77 1015.6 20.6 W 20.6 0.0 0.4
15:23 14.8 10.4 75 1015.5 12.1 SW 20.6 0.0 0.4
15:24 14.9 10.5 75 1015.6 9.8 SW 20.6 0.0 0.4
15:25 14.9 10.5 75 1015.6 13.0 SW 20.6 0.0 0.4
15:26 14.9 10.5 75 1015.6 14.5 SW 20.6 0.0 0.4
15:27 14.9 10.5 75 1015.3 13.6 SW 20.6 0.0 0.4
15:28 15.0 10.6 75 1015.6 9.8 S 20.6 0.0 0.4
15:29 15.0 10.6 75 1015.6 9.8 S 20.6 0.0 0.4
15:30 15.0 10.8 76 1015.6 11.4 SW 20.6 0.0 0.4
15:31 15.0 10.8 76 1015.6 10.7 W 20.6 0.0 0.4
15:32 15.0 10.8 76 1015.7 9.2 SW 15.2 0.0 0.4
15:33 15.0 10.8 76 1015.7 11.4 SW 14.5 0.0 0.4
15:34 15.0 10.8 76 1015.7 11.4 SW 14.5 0.0 0.4
15:35 14.9 10.7 76 1015.6 12.1 WNW 14.5 0.0 0.4
15:36 14.9 10.7 76 1015.7 13.0 SW 13.6 0.0 0.4
15:37 14.9 10.7 76 1015.6 13.6 SW 13.6 0.0 0.4
15:38 14.9 10.7 76 1015.8 9.8 SW 13.6 0.0 0.4
15:39 14.8 10.6 76 1015.8 13.0 SW 13.6 0.0 0.4
15:40 14.7 10.5 76 1015.8 9.8 SW 13.6 0.0 0.4
15:41 14.7 10.5 76 1015.7 10.7 SW 13.6 0.0 0.4
15:42 14.6 10.4 76 1015.7 10.7 SW 13.6 0.0 0.4
15:43 14.6 10.4 76 1015.8 11.4 SW 13.6 0.0 0.4
15:44 14.5 10.3 76 1015.7 14.5 W 14.5 0.0 0.4
15:45 14.5 10.3 76 1015.8 11.4 W 14.5 0.0 0.4
15:46 14.5 10.3 76 1015.8 9.8 W 14.5 0.0 0.4
15:47 14.5 10.3 76 1015.6 13.6 W 14.5 0.0 0.4
15:48 14.5 10.3 76 1015.7 12.1 SW 14.5 0.0 0.4
15:49 14.5 10.3 76 1015.7 12.1 SW 14.5 0.0 0.4
15:50 14.4 10.4 77 1015.7 17.4 SW 17.4 0.0 0.4
15:51 14.4 10.4 77 1015.9 9.2 SW 17.4 0.0 0.4
15:52 14.4 10.4 77 1015.8 14.5 SW 17.4 0.0 0.4
15:53 14.4 10.4 77 1015.8 14.5 W 17.4 0.0 0.4
15:54 14.3 10.3 77 1015.9 13.6 SW 17.4 0.0 0.4
15:55 14.3 10.3 77 1015.6 13.0 WSW 17.4 0.0 0.4
15:56 14.3 10.3 77 1015.7 13.0 SW 17.4 0.0 0.4
15:57 14.2 10.4 78 1015.7 13.6 SW 17.4 0.0 0.4
15:58 14.2 10.4 78 1015.7 14.5 SW 17.4 0.0 0.4
15:59 14.1 10.3 78 1015.9 12.1 SW 17.4 0.0 0.4
16:00 14.1 10.3 78 1015.8 11.4 SW 14.5 0.0 0.4
16:01 14.1 10.3 78 1015.6 11.4 SW 14.5 0.0 0.4
16:02 14.1 10.3 78 1015.7 11.4 SW 14.5 0.0 0.4
16:03 14.0 10.2 78 1015.9 12.1 W 14.5 0.0 0.4
16:04 14.0 10.4 79 1015.7 10.7 SW 14.5 0.0 0.4
16:05 14.0 10.4 79 1015.7 10.7 SW 14.5 0.0 0.4
16:06 14.0 10.4 79 1015.9 11.4 SW 14.5 0.0 0.4
16:07 14.0 10.4 79 1015.8 15.2 SW 15.2 0.0 0.4
16:08 14.0 10.4 79 1015.9 11.4 W 15.2 0.0 0.4
16:09 14.0 10.4 79 1016.0 7.6 W 15.2 0.0 0.4
16:10 14.0 10.4 79 1016.0 9.2 SW 15.2 0.0 0.4
16:11 14.0 10.4 79 1015.9 12.1 W 15.2 0.0 0.4
16:12 14.0 10.4 79 1015.7 10.7 W 15.2 0.0 0.4
16:13 14.0 10.4 79 1015.8 17.4 SW 17.4 0.0 0.4
16:14 14.0 10.4 79 1015.8 15.2 W 17.4 0.0 0.4
16:15 14.0 10.4 79 1015.9 10.7 SW 17.4 0.0 0.4
16:16 14.0 10.4 79 1016.0 13.0 W 17.4 0.0 0.4
16:17 13.9 10.3 79 1015.9 13.6 W 17.4 0.0 0.4
16:18 13.9 10.3 79 1015.9 9.8 W 17.4 0.0 0.4
16:19 13.9 10.3 79 1015.9 11.4 SW 17.4 0.0 0.4
16:20 13.9 10.3 79 1016.0 11.4 NW 17.4 0.0 0.4
16:21 13.9 10.3 79 1016.0 9.8 W 17.4 0.0 0.4
16:22 13.9 10.3 79 1015.9 9.2 W 17.4 0.0 0.4
16:23 13.9 10.3 79 1015.9 7.6 W 17.4 0.0 0.4
16:24 13.9 10.3 79 1016.0 13.0 SW 15.2 0.0 0.4
16:25 13.9 10.3 79 1015.8 13.0 SW 13.6 0.0 0.4
16:26 13.9 10.3 79 1015.8 13.0 SW 13.6 0.0 0.4
16:27 13.8 10.2 79 1016.0 6.9 W 13.6 0.0 0.4
16:28 13.8 10.2 79 1015.8 6.0 NW 13.0 0.0 0.4
16:29 13.8 10.2 79 1015.9 10.7 SW 13.0 0.0 0.4
16:30 13.8 10.2 79 1016.0 12.1 SW 13.0 0.0 0.4
16:31 13.8 10.2 79 1015.8 6.9 SW 13.0 0.0 0.4
16:32 13.8 10.2 79 1015.8 7.6 W 13.0 0.0 0.4
16:33 13.7 10.1 79 1015.8 9.8 W 13.0 0.0 0.4
16:34 13.7 10.1 79 1015.9 9.8 SW 13.0 0.0 0.4
16:35 13.7 10.1 79 1016.0 12.1 W 13.0 0.0 0.4
16:36 13.6 10.0 79 1015.8 10.7 SW 12.1 0.0 0.4
16:37 13.6 10.0 79 1015.9 9.8 W 12.1 0.0 0.4
16:38 13.6 10.0 79 1016.0 9.8 W 12.1 0.0 0.4
16:39 13.5 9.9 79 1016.0 12.1 SW 12.1 0.0 0.4
16:40 13.5 9.9 79 1016.0 8.3 SSW 12.1 0.0 0.4
16:41 13.4 9.8 79 1016.0 8.3 W 12.1 0.0 0.4
16:42 13.4 9.8 79 1015.9 11.4 W 12.1 0.0 0.4
16:43 13.3 9.7 79 1015.9 10.7 SW 12.1 0.0 0.4
16:44 13.3 9.7 79 1015.8 9.8 W 12.1 0.0 0.4
16:45 13.2 9.6 79 1015.9 9.8 SW 12.1 0.0 0.4
16:46 13.2 9.6 79 1015.9 9.8 SW 12.1 0.0 0.4
16:47 13.2 9.6 79 1016.0 9.8 SW 12.1 0.0 0.4
16:48 13.1 9.5 79 1015.8 9.8 WNW 12.1 0.0 0.4
16:49 13.1 9.5 79 1015.9 9.8 SW 12.1 0.0 0.4
16:50 13.1 9.5 79 1015.9 8.3 W 11.4 0.0 0.4
16:51 13.1 9.5 79 1015.9 9.2 SW 11.4 0.0 0.4
16:52 13.0 9.4 79 1016.0 9.2 SW 11.4 0.0 0.4
16:53 13.0 9.4 79 1015.8 8.3 SW 10.7 0.0 0.4
16:54 13.0 9.4 79 1015.8 9.2 SW 9.8 0.0 0.4
16:55 13.0 9.6 80 1015.9 8.3 SW 9.8 0.0 0.4
16:56 12.9 9.5 80 1016.2 6.0 W 9.8 0.0 0.4
16:57 12.9 9.5 80 1015.9 7.6 W 9.8 0.0 0.4
16:58 12.9 9.5 80 1016.1 7.6 SW 9.8 0.0 0.4
16:59 12.9 9.5 80 1016.1 15.2 SW 15.2 0.0 0.4
17:00 12.9 9.5 80 1016.1 11.4 SSW 15.2 0.0 0.4
17:01 12.9 9.5 80 1016.1 11.4 SSW 15.2 0.0 0.4
17:02 12.9 9.5 80 1016.1 11.4 SSW 15.2 0.0 0.4
17:03 12.8 9.6 81 1015.9 12.1 W 15.2 0.0 0.4
17:04 12.8 9.6 81 1016.1 11.4 W 15.2 0.0 0.4
17:05 12.8 9.6 81 1016.1 10.7 W 15.2 0.0 0.4
17:06 12.8 9.6 81 1016.1 9.2 SW 15.2 0.0 0.4
17:07 12.8 9.6 81 1016.3 6.9 WSW 15.2 0.0 0.4
17:08 12.7 9.5 81 1015.9 7.6 NW 15.2 0.0 0.4
17:09 12.7 9.7 82 1015.9 6.0 W 15.2 0.0 0.4
17:10 12.7 9.7 82 1015.9 6.9 W 12.1 0.0 0.4
17:11 12.7 9.7 82 1015.9 9.2 W 12.1 0.0 0.4
17:12 12.7 9.7 82 1015.9 7.6 W 12.1 0.0 0.4
17:13 12.7 9.7 82 1015.8 6.0 SW 12.1 0.0 0.4
17:14 12.7 9.7 82 1015.9 6.0 W 12.1 0.0 0.4
17:15 12.7 9.7 82 1015.8 7.6 W 11.4 0.0 0.4
17:16 12.7 9.7 82 1015.9 5.4 SW 9.2 0.0 0.4
17:17 12.6 9.6 82 1015.8 8.3 SW 9.2 0.0 0.4
17:18 12.6 9.6 82 1016.0 8.3 W 9.2 0.0 0.4
17:19 12.6 9.6 82 1016.0 5.4 SW 9.2 0.0 0.4
17:20 12.6 9.8 83 1015.8 3.8 SW 9.2 0.0 0.4
17:21 12.6 9.8 83 1015.8 4.5 W 8.3 0.0 0.4
17:22 12.5 9.7 83 1015.9 4.5 SW 8.3 0.0 0.4
17:23 12.5 9.7 83 1016.0 6.9 W 8.3 0.0 0.4
17:24 12.5 9.7 83 1016.0 4.5 SW 8.3 0.0 0.4
17:25 12.5 9.7 83 1016.0 5.4 SW 8.3 0.0 0.4
17:26 12.5 9.7 83 1016.0 5.4 SW 8.3 0.0 0.4
17:27 12.5 9.7 83 1016.0 6.9 SW 8.3 0.0 0.4
17:28 12.5 9.7 83 1015.8 6.0 SW 6.9 0.0 0.4
17:29 12.5 9.7 83 1015.9 4.5 SW 6.9 0.0 0.4
17:30 12.5 9.7 83 1015.9 5.4 SW 6.9 0.0 0.4
17:31 12.4 10.3 87 1016.2 5.4 SW 6.9 0.0 0.4
17:32 12.4 10.3 87 1015.9 4.5 WSW 6.9 0.0 0.4
17:33 12.4 10.3 87 1016.1 4.5 WSW 6.9 0.0 0.4
17:34 12.4 10.3 87 1015.8 3.1 SW 6.9 0.0 0.4
17:35 12.4 10.3 87 1016.0 3.8 S 6.9 0.0 0.4
17:36 12.4 10.3 87 1015.8 3.8 SW 6.9 0.0 0.4
17:37 12.4 10.3 87 1015.9 3.8 W 6.0 0.0 0.4
17:38 12.4 10.3 87 1016.0 3.8 WSW 5.4 0.0 0.4
17:39 12.4 10.3 87 1015.9 4.5 SW 5.4 0.0 0.4
17:40 12.4 10.5 88 1015.9 4.5 SW 5.4 0.0 0.4
17:41 12.4 10.5 88 1015.8 3.8 W 5.4 0.0 0.4
17:42 12.4 10.5 88 1015.8 3.8 SW 5.4 0.0 0.4
17:43 12.4 10.5 88 1016.2 5.4 SW 5.4 0.0 0.4
17:44 12.4 10.5 88 1015.7 5.4 SW 5.4 0.0 0.4
17:45 12.4 10.5 88 1016.0 5.4 SW 5.4 0.0 0.4
17:46 12.4 10.5 88 1016.0 4.5 SW 5.4 0.0 0.4
17:47 12.4 10.5 88 1016.1 7.6 SW 7.6 0.0 0.4
17:48 12.3 10.5 89 1015.8 6.0 SW 7.6 0.0 0.4
17:49 12.3 10.5 89 1016.0 6.9 W 7.6 0.0 0.4
17:50 12.3 10.5 89 1016.1 6.0 SW 7.6 0.0 0.4
17:51 12.3 10.5 89 1016.1 15.2 SW 15.2 0.0 0.4
17:52 12.3 10.5 89 1016.1 8.3 SW 15.2 0.0 0.4
17:53 12.3 10.5 89 1015.9 8.3 S 15.2 0.0 0.4
17:54 12.3 10.5 89 1016.2 9.2 NW 15.2 0.0 0.4
17:55 12.3 10.5 89 1016.1 10.7 SW 15.2 0.0 0.4
17:56 12.3 10.5 89 1016.2 15.2 SW 15.2 0.0 0.4
17:57 12.3 10.5 89 1016.4 15.2 SW 15.2 0.0 0.4
17:58 12.3 10.5 89 1016.4 15.2 SW 15.2 0.0 0.4
17:59 12.3 10.5 89 1016.1 12.1 SW 15.2 0.0 0.4
18:00 12.3 10.5 89 1016.2 11.4 SW 15.2 0.0 0.4
18:01 12.3 10.5 89 1016.1 11.4 SW 15.2 0.0 0.4
18:02 12.3 10.5 89 1016.1 11.4 SW 15.2 0.0 0.4
18:03 12.3 10.5 89 1015.9 11.4 SW 15.2 0.0 0.4
18:04 12.3 10.5 89 1015.9 11.4 SW 15.2 0.0 0.4
18:05 12.2 10.4 89 1016.1 15.2 SSW 15.2 0.0 0.6
18:06 12.1 10.3 89 1016.2 11.4 SW 15.2 1.5 0.6
18:07 12.1 10.3 89 1016.0 11.4 SW 15.2 2.3 0.6
18:08 12.0 10.2 89 1016.0 11.4 SW 15.2 2.3 0.6
18:09 12.0 10.2 89 1016.1 9.8 SSW 15.2 2.3 0.7
18:10 12.0 10.4 90 1016.1 9.2 W 15.2 3.0 0.7
18:11 12.0 10.4 90 1016.2 8.3 S 15.2 1.5 0.7
18:12 11.9 10.3 90 1016.0 6.0 NW 15.2 0.8 0.7
18:13 11.9 10.3 90 1016.0 6.0 NW 15.2 0.8 0.7
18:14 11.9 10.3 90 1016.2 8.3 SW 15.2 0.8 0.7
18:15 11.9 10.3 90 1016.0 10.7 SW 15.2 0.0 0.7
18:16 11.9 10.3 90 1016.1 9.2 NW 12.1 0.0 0.7
18:17 11.8 10.2 90 1016.3 7.6 S 12.1 0.0 0.7
18:18 11.8 10.2 90 1016.2 9.8 SW 12.1 0.0 0.7
18:19 11.8 10.2 90 1016.2 9.8 SW 10.7 0.0 0.7
18:20 11.8 10.2 90 1016.1 8.3 S 10.7 0.0 0.7
18:21 11.8 10.2 90 1016.0 7.6 SW 10.7 0.0 0.7
18:22 11.8 10.4 91 1016.2 6.0 SW 10.7 0.0 0.7
18:23 11.8 10.4 91 1016.0 6.9 SW 10.7 0.0 0.7
18:24 11.8 10.4 91 1015.8 6.0 SW 10.7 0.0 0.7
18:25 11.7 10.3 91 1016.2 6.9 SW 10.7 0.0 0.7
18:26 11.8 10.4 91 1016.0 6.0 SW 9.8 0.0 0.7
18:27 11.8 10.4 91 1016.0 6.9 SW 9.8 0.0 0.7
18:28 11.8 10.4 91 1016.0 7.6 SW 9.8 0.0 0.7
18:29 11.8 10.4 91 1016.2 6.9 SW 9.8 0.0 0.7
18:30 11.8 10.4 91 1016.1 5.4 S 8.3 0.0 0.7
18:31 11.7 10.3 91 1016.1 6.9 WSW 7.6 0.0 0.7
18:32 11.7 10.3 91 1016.1 6.9 WSW 7.6 0.0 0.7
18:33 11.7 10.4 92 1016.1 7.6 SW 7.6 0.0 0.7
18:34 11.7 10.4 92 1016.1 7.6 SW 7.6 0.0 0.7
18:35 11.7 10.4 92 1015.9 7.6 SW 7.6 0.0 0.7
18:36 11.7 10.4 92 1015.9 6.9 WSW 7.6 0.0 0.7
18:37 11.7 10.4 92 1016.1 6.9 SW 7.6 0.0 0.7
18:38 11.7 10.4 92 1016.1 9.2 SW 9.2 0.0 0.7
18:39 11.7 10.4 92 1015.9 7.6 WSW 9.2 0.0 0.7
18:40 11.7 10.4 92 1016.2 5.4 SW 9.2 0.0 0.7
18:41 11.7 10.4 92 1016.0 6.0 WSW 9.2 0.0 0.7
18:42 11.7 10.4 92 1016.0 7.6 SW 9.2 0.0 0.7
18:43 11.7 10.4 92 1016.0 7.6 SW 9.2 0.0 0.7
18:44 11.7 10.6 93 1016.2 5.4 SW 9.2 0.0 0.7
18:45 11.7 10.6 93 1015.9 5.4 SW 9.2 0.0 0.7
18:46 11.7 10.6 93 1016.1 5.4 S 9.2 0.0 0.7
18:47 11.7 10.6 93 1015.9 6.9 WSW 9.2 0.0 0.7
18:48 11.7 10.6 93 1016.1 5.4 SW 9.2 0.0 0.7
18:49 11.7 10.6 93 1016.2 6.9 SW 7.6 0.0 0.7
18:50 11.7 10.6 93 1016.2 9.2 NW 9.2 0.0 0.7
18:51 11.8 10.7 93 1016.0 8.3 S 9.2 0.0 0.7
18:52 11.8 10.7 93 1016.0 8.3 SW 9.2 0.0 0.7
18:53 11.8 10.7 93 1016.1 7.6 SW 9.2 0.0 0.7
18:54 11.8 10.7 93 1016.0 6.0 S 9.2 0.0 0.7
18:55 11.8 10.7 93 1016.2 6.9 SW 9.2 0.8 0.8
18:56 11.8 10.7 93 1016.2 6.9 S 9.2 0.8 0.8
18:57 11.8 10.7 93 1016.2 6.9 S 9.2 0.8 0.8
18:58 11.8 10.9 94 1016.1 6.0 SW 9.2 0.8 0.8
18:59 11.8 10.9 94 1016.3 9.2 SW 9.2 0.8 0.8
19:00 11.8 10.9 94 1016.2 5.4 NW 9.2 0.0 0.8
19:01 11.8 10.9 94 1016.1 5.4 NW 9.2 0.0 0.8
19:02 11.8 10.9 94 1016.2 5.4 NW 9.2 0.0 0.8
19:03 11.8 10.9 94 1016.1 5.4 NW 9.2 0.0 0.8
19:04 11.8 10.9 94 1016.0 5.4 NW 9.2 0.0 0.8
19:05 11.8 10.9 94 1016.1 9.8 SW 9.8 0.0 0.8
19:06 11.8 10.9 94 1016.2 6.0 SW 9.8 0.8 0.8
19:07 11.8 10.9 94 1016.1 5.4 S 9.8 0.8 0.8
19:08 11.8 10.9 94 1016.1 6.9 SW 9.8 0.8 0.8
19:09 11.8 10.9 94 1016.1 6.0 SW 9.8 0.8 0.8
19:10 11.8 10.9 94 1016.2 6.0 SW 9.8 0.8 0.9
19:11 11.8 10.9 94 1016.1 6.9 S 9.8 0.8 0.9
19:12 11.9 11.1 95 1016.1 6.9 SW 9.8 0.8 0.9
19:13 11.9 11.1 95 1016.1 6.9 SW 9.8 0.8 0.9
19:14 11.9 11.1 95 1016.1 8.3 SW 9.8 0.8 0.9
19:15 11.9 11.1 95 1016.1 8.3 NW 9.8 1.5 0.9
19:16 11.9 11.1 95 1016.2 12.1 SW 12.1 0.8 0.9
19:17 11.9 11.1 95 1016.2 12.1 SW 12.1 0.8 0.9
19:18 11.9 11.1 95 1016.0 9.8 S 12.1 0.8 0.9
19:19 11.9 11.1 95 1016.1 9.8 SW 12.1 0.8 0.9
19:20 11.9 11.1 95 1016.0 11.4 SW 12.1 0.0 0.9
19:21 11.9 11.1 95 1016.0 9.2 NW 12.1 0.0 0.9
19:22 11.9 11.1 95 1016.2 7.6 SW 12.1 0.0 0.9
19:23 11.9 11.1 95 1016.0 10.7 SW 12.1 0.0 0.9
19:24 11.9 11.1 95 1016.0 10.7 S 12.1 0.0 0.9
19:25 11.9 11.1 95 1015.9 9.2 S 12.1 0.0 0.9
19:26 11.9 11.1 95 1016.1 9.8 S 12.1 0.0 0.9
19:27 11.9 11.1 95 1016.2 8.3 SW 11.4 0.0 0.9
19:28 11.9 11.3 96 1016.1 8.3 SW 11.4 0.0 0.9
19:29 12.0 11.4 96 1016.1 9.8 WSW 11.4 0.0 0.9
19:30 12.0 11.4 96 1016.3 9.8 S 10.7 0.0 1.0
19:31 12.0 11.4 96 1016.0 10.7 SW 10.7 0.8 1.0
19:32 12.0 11.4 96 1016.1 10.7 SW 10.7 0.8 1.0
19:33 12.0 11.4 96 1015.9 9.2 S 10.7 0.8 1.0
19:34 12.0 11.4 96 1016.1 9.2 S 10.7 0.8 1.0
19:35 12.0 11.4 96 1015.9 9.2 SW 10.7 0.8 1.0
19:36 12.0 11.4 96 1016.1 9.2 SW 10.7 0.8 1.1
19:37 12.0 11.4 96 1015.9 6.0 SW 10.7 0.8 1.1
19:38 12.0 11.4 96 1016.0 6.9 NNW 10.7 0.8 1.1
19:39 12.0 11.4 96 1016.0 8.3 SW 10.7 0.8 1.1
19:40 12.0 11.4 96 1016.3 9.2 S 10.7 0.8 1.1
19:41 12.0 11.4 96 1016.3 9.2 SSW 10.7 0.0 1.1
19:42 12.0 11.4 96 1016.3 10.7 SW 10.7 0.0 1.1
19:43 12.0 11.4 96 1016.2 10.7 SW 10.7 0.0 1.1
19:44 12.1 11.6 97 1016.0 9.2 NE 10.7 0.0 1.1
19:45 12.1 11.6 97 1016.2 7.6 WSW 10.7 0.0 1.1
19:46 12.1 11.6 97 1016.2 7.6 WSW 10.7 0.0 1.1
19:47 12.1 11.6 97 1016.1 9.2 SW 10.7 0.0 1.1
19:48 12.1 11.6 97 1016.2 7.6 SW 10.7 0.0 1.1
19:49 12.1 11.6 97 1016.2 11.4 SW 11.4 0.0 1.1
19:50 12.1 11.6 97 1016.2 11.4 SW 11.4 0.0 1.1
19:51 12.1 11.6 97 1016.2 9.2 SW 11.4 0.0 1.1
19:52 12.1 11.6 97 1016.1 7.6 SW 11.4 0.0 1.1
19:54 12.1 11.6 97 1016.5 7.6 SW 11.4 0.0 1.1
19:55 12.1 11.6 97 1016.3 6.0 SW 11.4 0.0 1.1
19:56 12.1 11.6 97 1016.4 9.2 SW 11.4 0.0 1.1
19:57 12.1 11.6 97 1016.3 9.2 SW 11.4 0.0 1.1
19:58 12.1 11.6 97 1016.3 5.4 SW 11.4 0.0 1.1
19:59 12.1 11.6 97 1016.2 5.4 NW 11.4 0.0 1.1
20:00 12.1 11.6 97 1016.2 6.9 S 9.2 0.0 1.1
20:01 12.1 11.6 97 1016.2 6.9 S 9.2 0.0 1.1
20:02 12.1 11.6 97 1016.4 6.9 S 9.2 0.0 1.1
20:03 12.1 11.6 97 1016.3 6.9 S 9.2 0.0 1.1
20:04 12.1 11.6 97 1016.4 6.9 S 9.2 0.0 1.1
20:05 12.1 11.6 97 1016.2 6.9 S 9.2 0.0 1.1
20:06 12.1 11.6 97 1016.3 6.9 S 9.2 0.0 1.1
20:07 12.1 11.6 97 1016.4 7.6 W 9.2 0.0 1.1
20:08 12.1 11.8 98 1016.5 6.9 W 7.6 0.0 1.1
20:09 12.1 11.8 98 1016.5 6.9 NW 7.6 0.0 1.1
20:10 12.1 11.8 98 1016.7 6.9 SW 7.6 0.0 1.1
20:11 12.1 11.8 98 1016.5 5.4 SW 7.6 0.0 1.1
20:12 12.1 11.8 98 1016.5 8.3 NW 8.3 0.0 1.1
20:13 12.0 11.7 98 1016.3 6.9 SW 8.3 0.0 1.1
20:14 12.0 11.7 98 1016.6 6.0 NW 8.3 0.0 1.1
20:15 12.0 11.7 98 1016.7 6.0 NW 8.3 0.0 1.1
20:16 12.0 11.7 98 1016.5 3.8 NW 8.3 0.0 1.1
20:17 12.0 11.7 98 1016.3 3.1 SW 8.3 0.0 1.1
20:18 11.9 11.6 98 1016.4 4.5 NW 8.3 0.0 1.1
20:19 11.9 11.4 97 1016.2 6.0 W 8.3 0.0 1.1
20:20 11.9 11.4 97 1016.3 6.0 SW 8.3 0.0 1.1
20:21 11.9 11.4 97 1016.4 3.8 SW 8.3 0.0 1.1
20:22 11.8 11.3 97 1016.2 3.8 SW 8.3 0.0 1.1
20:23 11.8 11.3 97 1016.4 4.5 NW 6.9 0.0 1.1
20:24 11.8 11.3 97 1016.5 5.4 NW 6.0 0.0 1.1
20:25 11.7 11.2 97 1016.5 5.4 W 6.0 0.0 1.1
20:26 11.7 11.2 97 1016.4 3.8 SW 6.0 0.0 1.1
20:27 11.7 11.2 97 1016.6 4.5 SW 6.0 0.0 1.1
20:28 11.7 11.2 97 1016.5 4.5 W 6.0 0.0 1.1
20:29 11.7 11.2 97 1016.6 4.5 NW 6.0 0.0 1.1
20:30 11.7 11.2 97 1016.7 4.5 NW 5.4 0.0 1.1
20:31 11.6 11.1 97 1016.6 4.5 W 5.4 0.0 1.1
20:32 11.6 11.1 97 1016.6 4.5 NW 5.4 0.0 1.1
20:33 11.6 11.1 97 1016.5 5.4 WSW 5.4 0.0 1.1
20:34 11.6 11.1 97 1016.5 3.8 SSW 5.4 0.0 1.1
20:35 11.6 11.1 97 1016.6 3.8 NW 5.4 0.0 1.1
20:36 11.5 11.0 97 1016.6 4.5 W 5.4 0.0 1.1
20:37 11.5 11.0 97 1016.6 3.8 SSW 5.4 0.0 1.1
20:38 11.5 11.0 97 1016.8 3.8 NW 5.4 0.0 1.1
20:39 11.4 10.9 97 1016.5 4.5 SW 5.4 0.0 1.1
20:40 11.4 10.9 97 1016.7 4.5 NW 5.4 0.0 1.1
20:41 11.4 10.9 97 1016.5 4.5 SW 5.4 0.0 1.1
20:42 11.4 10.9 97 1016.5 4.5 SW 5.4 0.0 1.1
20:43 11.4 10.9 97 1016.6 4.5 SW 4.5 0.0 1.1
20:44 11.3 10.8 97 1016.6 4.5 SW 4.5 0.0 1.1
20:45 11.3 10.8 97 1016.6 4.5 SW 4.5 0.0 1.1
20:46 11.3 10.8 97 1016.6 3.8 SW 4.5 0.0 1.1
20:47 11.2 10.7 97 1016.4 3.8 SW 4.5 0.0 1.1
20:48 11.2 10.7 97 1016.5 4.5 SW 4.5 0.0 1.1
20:49 11.2 10.7 97 1016.5 4.5 SW 4.5 0.0 1.1
20:50 11.2 10.7 97 1016.6 3.8 SW 4.5 0.0 1.1
20:51 11.1 10.6 97 1016.7 3.1 W 4.5 0.0 1.1
20:52 11.1 10.6 97 1016.5 3.1 W 4.5 0.0 1.1
20:53 11.1 10.5 96 1016.6 4.5 NW 4.5 0.0 1.1
20:54 11.1 10.5 96 1016.5 3.8 NW 4.5 0.0 1.1
20:55 11.1 10.5 96 1016.4 3.8 W 4.5 0.0 1.1
20:56 11.0 10.4 96 1016.6 3.8 NW 4.5 0.0 1.1
20:57 11.0 10.4 96 1016.6 3.8 NW 4.5 0.0 1.1
20:58 11.0 10.4 96 1016.5 3.8 SW 4.5 0.0 1.1
20:59 11.0 10.4 96 1016.5 3.8 SW 4.5 0.0 1.1
21:00 11.0 10.4 96 1016.7 3.8 SW 4.5 0.0 1.1
21:01 11.0 10.4 96 1016.6 3.8 SW 4.5 0.0 1.1
21:02 11.0 10.4 96 1016.3 3.8 SW 4.5 0.0 1.1
21:03 11.0 10.4 96 1016.6 3.8 SW 3.8 0.0 1.1
21:04 11.0 10.4 96 1016.5 3.8 SW 3.8 0.0 1.1
21:05 11.0 10.4 96 1016.5 3.8 SW 3.8 0.0 1.1
21:06 11.0 10.4 96 1016.4 3.8 SW 3.8 0.0 1.1
21:07 10.8 10.2 96 1016.4 3.1 SW 3.8 0.0 1.1
21:08 10.8 10.2 96 1016.5 3.1 SW 3.8 0.0 1.1
21:09 10.8 10.2 96 1016.6 3.1 SW 3.8 0.0 1.1
21:10 10.8 10.2 96 1016.8 3.8 SW 3.8 0.0 1.1
21:11 10.8 10.2 96 1016.5 3.8 SW 3.8 0.0 1.1
21:12 10.7 10.1 96 1016.5 4.5 SW 5.4 0.0 1.1
21:13 10.7 10.1 96 1016.6 3.1 SW 5.4 0.0 1.1
21:14 10.7 10.1 96 1016.5 4.5 W 5.4 0.0 1.1
21:15 10.6 10.0 96 1016.5 4.5 SW 5.4 0.0 1.1
21:16 10.6 10.0 96 1016.6 4.5 SW 5.4 0.0 1.1
21:17 10.6 10.0 96 1016.6 3.8 SSW 5.4 0.0 1.1
21:18 10.6 10.0 96 1016.8 4.5 SW 5.4 0.0 1.1
21:19 10.5 9.9 96 1016.7 3.1 SW 5.4 0.0 1.1
21:20 10.5 9.7 95 1016.9 3.1 SW 5.4 0.0 1.1
21:21 10.5 9.7 95 1016.7 2.2 SW 5.4 0.0 1.1
21:22 10.4 9.6 95 1016.4 3.1 SW 5.4 0.0 1.1
21:23 10.4 9.6 95 1016.7 3.1 SW 4.5 0.0 1.1
21:24 10.4 9.6 95 1016.7 3.1 SW 4.5 0.0 1.1
21:25 10.3 9.5 95 1016.5 2.2 SW 4.5 0.0 1.1
21:26 10.3 9.5 95 1016.8 2.2 SW 4.5 0.0 1.1
21:27 10.3 9.5 95 1016.7 3.1 SW 4.5 0.0 1.1
21:28 10.2 9.4 95 1016.8 2.2 SW 4.5 0.0 1.1
21:29 10.2 9.4 95 1016.8 3.1 NE 3.8 0.0 1.1
21:30 10.2 9.4 95 1016.7 3.8 SW 3.8 0.0 1.1
21:31 10.1 9.3 95 1016.8 3.1 SW 3.8 0.0 1.1
21:32 10.1 9.3 95 1016.7 3.1 SW 3.8 0.0 1.1
21:33 10.1 9.3 95 1016.9 3.1 SW 3.8 0.0 1.1
21:34 10.1 9.3 95 1016.9 3.1 SW 3.8 0.0 1.1
21:35 10.0 9.2 95 1017.0 3.8 SW 3.8 0.0 1.1
21:36 10.0 9.2 95 1016.9 3.1 SW 3.8 0.0 1.1
21:37 10.0 9.2 95 1016.8 2.2 SW 3.8 0.0 1.1
21:38 10.0 9.2 95 1016.7 2.2 SW 3.8 0.0 1.1
21:39 10.0 9.2 95 1016.9 3.1 SW 3.8 0.0 1.1
21:40 10.0 9.2 95 1016.8 3.1 SW 3.8 0.0 1.1
21:41 10.0 9.2 95 1017.0 3.1 S 3.8 0.0 1.1
21:42 9.9 9.1 95 1016.9 3.1 SW 3.8 0.0 1.1
21:43 9.9 9.1 95 1016.8 3.1 S 3.8 0.0 1.1
21:44 9.9 9.1 95 1016.9 3.8 NW 3.8 0.0 1.1
21:45 9.9 9.1 95 1016.9 3.1 N 3.8 0.0 1.1
21:46 9.9 9.1 95 1017.0 3.1 S 3.8 0.0 1.1
21:47 9.8 9.0 95 1017.0 3.8 SW 3.8 0.0 1.1
21:48 9.8 9.0 95 1016.9 3.1 SW 3.8 0.0 1.1
21:49 9.8 9.0 95 1016.8 2.2 SW 3.8 0.0 1.1
21:50 9.8 9.0 95 1016.8 2.2 SW 3.8 0.0 1.1
21:51 9.8 8.9 94 1017.1 3.1 SW 3.8 0.0 1.1
21:52 9.8 8.9 94 1016.6 3.1 SW 3.8 0.0 1.1
21:53 9.8 8.9 94 1017.0 2.2 NW 3.8 0.0 1.1
21:54 9.8 8.9 94 1016.9 2.2 NW 3.8 0.0 1.1
21:55 9.8 9.0 95 1016.9 3.8 SW 3.8 0.0 1.1
21:56 9.8 9.0 95 1016.9 3.1 SW 3.8 0.0 1.1
21:57 9.7 8.9 95 1017.0 3.1 W 3.8 0.0 1.1
21:58 9.7 8.9 95 1017.1 5.4 SW 5.4 0.0 1.1
21:59 9.7 8.9 95 1017.0 3.8 SW 5.4 0.0 1.1
22:00 9.7 8.9 95 1016.8 5.4 SW 5.4 0.0 1.1
22:01 9.8 9.0 95 1016.8 5.4 W 5.4 0.0 1.1
22:02 9.8 9.0 95 1016.8 5.4 SW 5.4 0.0 1.1
22:03 9.8 9.0 95 1017.0 4.5 W 5.4 0.0 1.1
22:04 9.8 9.0 95 1016.9 3.8 NE 5.4 0.0 1.1
22:05 9.8 9.0 95 1016.9 3.8 NE 5.4 0.0 1.1
22:06 9.8 9.0 95 1016.8 3.8 NE 5.4 0.0 1.1
22:07 9.8 9.0 95 1016.9 5.4 W 5.4 0.0 1.1
22:08 9.9 9.1 95 1016.9 6.0 SW 6.0 0.0 1.1
22:09 9.9 9.1 95 1017.1 5.4 SW 6.0 0.0 1.1
22:10 9.9 9.1 95 1017.0 4.5 NW 6.0 0.0 1.1
22:11 9.9 9.1 95 1017.0 4.5 NW 6.0 0.0 1.1
22:12 9.9 9.1 95 1016.8 4.5 NW 6.0 0.0 1.1
22:13 9.9 9.1 95 1016.9 5.4 NW 6.0 0.0 1.1
22:14 10.0 9.2 95 1017.0 3.8 SW 6.0 0.0 1.1
22:15 10.0 9.2 95 1017.0 5.4 NW 6.0 0.0 1.1
22:16 10.0 9.2 95 1016.9 4.5 SW 6.0 0.0 1.1
22:17 10.0 9.2 95 1017.2 4.5 SW 6.0 0.0 1.1
22:18 10.0 9.2 95 1017.0 3.1 WSW 5.4 0.0 1.1
22:19 10.0 9.2 95 1017.1 3.8 SW 5.4 0.0 1.1
22:20 10.0 9.2 95 1017.2 3.8 SW 5.4 0.0 1.1
22:21 10.0 9.2 95 1017.2 4.5 W 5.4 0.0 1.1
22:22 10.0 9.2 95 1017.1 4.5 W 5.4 0.0 1.1
22:23 10.0 9.2 95 1017.3 5.4 NW 5.4 0.0 1.1
22:24 10.0 9.2 95 1017.0 6.0 SW 6.0 0.0 1.1
22:25 10.0 9.2 95 1017.0 6.0 SW 6.0 0.0 1.1
22:26 10.0 9.2 95 1017.2 5.4 SW 6.0 0.0 1.1
22:27 10.0 9.2 95 1017.2 6.0 SW 6.0 0.0 1.1
22:28 10.0 9.2 95 1017.4 5.4 SW 6.0 0.0 1.1
22:29 10.0 9.2 95 1017.1 3.8 NE 6.0 0.0 1.1
22:30 10.0 9.2 95 1016.9 5.4 W 6.0 0.0 1.1
22:31 10.0 9.2 95 1017.1 6.0 NW 6.0 0.0 1.1
22:32 10.0 9.2 95 1017.1 6.0 NW 6.0 0.0 1.1
22:33 10.0 9.2 95 1017.6 5.4 NW 6.0 0.0 1.1
22:34 10.0 9.2 95 1017.3 4.5 NW 6.0 0.0 1.1
22:35 10.0 9.2 95 1017.2 3.8 SW 6.0 0.0 1.1
22:36 10.0 9.2 95 1017.5 5.4 WSW 6.0 0.0 1.1
22:37 10.0 9.2 95 1017.3 3.8 WSW 6.0 0.0 1.1
22:38 10.0 9.2 95 1017.3 3.8 WSW 6.0 0.0 1.1
22:39 10.0 9.2 95 1017.6 5.4 NW 6.0 0.0 1.1
22:40 10.0 9.2 95 1017.4 5.4 NW 6.0 0.0 1.1
22:41 10.0 9.2 95 1017.4 4.5 SW 6.0 0.0 1.1
22:42 10.0 9.2 95 1017.4 6.9 NW 6.9 0.0 1.1
22:43 10.0 9.2 95 1017.4 6.0 NW 6.9 0.0 1.1
22:44 10.0 9.2 95 1017.3 5.4 NW 6.9 0.0 1.1
22:45 10.0 9.2 95 1017.4 6.9 NE 6.9 0.0 1.1
22:46 10.0 9.2 95 1017.6 6.9 NE 6.9 0.0 1.1
22:47 10.0 9.2 95 1017.4 4.5 W 6.9 0.0 1.1
22:49 10.0 9.2 95 1017.4 6.0 W 6.9 0.0 1.1
22:50 10.0 9.2 95 1017.5 4.5 NNE 6.9 0.0 1.1
22:51 10.0 9.2 95 1017.4 4.5 NW 6.9 0.0 1.1
22:52 10.0 9.2 95 1017.4 5.4 W 6.9 0.0 1.1
22:53 10.0 9.2 95 1017.5 3.8 WNW 6.9 0.0 1.1
22:54 10.0 9.2 95 1017.6 4.5 SW 6.9 0.0 1.1
22:55 10.0 9.2 95 1017.4 4.5 SW 6.9 0.0 1.1
22:56 10.0 9.2 95 1017.6 4.5 NW 6.0 0.0 1.1
22:57 10.0 9.2 95 1017.5 4.5 NW 6.0 0.0 1.1
22:58 10.0 9.2 95 1017.4 4.5 W 6.0 0.0 1.1
22:59 10.0 9.2 95 1017.4 3.8 W 6.0 0.0 1.1
23:00 10.0 9.2 95 1017.3 3.8 SW 5.4 0.0 1.1
23:01 10.0 9.2 95 1017.4 3.8 SW 5.4 0.0 1.1
23:02 10.0 9.2 95 1017.3 3.8 SW 5.4 0.0 1.1
23:03 10.0 9.2 95 1017.4 3.8 SW 5.4 0.0 1.1
23:04 10.0 9.2 95 1017.5 3.8 SW 4.5 0.0 1.1
23:05 10.0 9.2 95 1017.4 3.8 SW 4.5 0.0 1.1
23:06 10.0 9.2 95 1017.4 3.8 SW 4.5 0.0 1.1
23:07 10.0 9.2 95 1017.3 4.5 SW 4.5 0.0 1.1
23:08 10.0 9.2 95 1017.3 4.5 NW 4.5 0.0 1.1
23:09 10.0 9.2 95 1017.5 4.5 NW 4.5 0.0 1.1
23:10 10.0 9.2 95 1017.6 4.5 W 4.5 0.0 1.1
23:11 10.0 9.2 95 1017.4 4.5 W 4.5 0.0 1.1
23:12 10.0 9.2 95 1017.5 6.0 W 6.0 0.0 1.1
23:13 10.0 9.2 95 1017.5 6.0 W 6.0 0.0 1.1
23:14 10.0 9.2 95 1017.5 6.0 W 6.0 0.0 1.1
23:15 10.0 9.2 95 1017.6 3.8 NE 6.0 0.0 1.1
23:16 9.9 9.1 95 1017.7 4.5 W 6.0 0.0 1.1
23:17 9.9 9.1 95 1017.6 4.5 NW 6.0 0.0 1.1
23:18 9.9 9.1 95 1017.6 4.5 NW 6.0 0.0 1.1
23:19 9.9 9.1 95 1017.4 3.8 WNW 6.0 0.0 1.1
23:20 9.9 9.1 95 1017.4 3.8 S 6.0 0.0 1.1
23:21 9.9 9.1 95 1017.6 3.8 NW 6.0 0.0 1.1
23:22 9.9 9.1 95 1017.6 3.8 SW 6.0 0.0 1.1
23:23 9.9 9.1 95 1017.7 3.8 NW 6.0 0.0 1.1
23:24 9.9 9.1 95 1017.5 2.2 NW 4.5 0.0 1.1
23:25 9.9 9.1 95 1017.4 3.1 NE 4.5 0.0 1.1
23:26 9.9 9.1 95 1017.6 2.2 SW 4.5 0.0 1.1
23:27 9.9 9.1 95 1017.6 2.2 NW 4.5 0.0 1.1
23:28 9.9 9.1 95 1017.7 5.4 SW 5.4 0.0 1.1
23:29 9.9 9.1 95 1017.4 5.4 S 5.4 0.0 1.1
23:30 9.9 9.1 95 1017.7 3.1 SW 5.4 0.0 1.1
23:31 9.8 9.0 95 1017.8 4.5 SW 5.4 0.0 1.1
23:32 9.8 9.0 95 1017.8 4.5 SW 5.4 0.0 1.1
23:33 9.8 9.0 95 1017.7 3.1 NW 5.4 0.0 1.1
23:34 9.8 9.0 95 1017.7 3.8 SW 5.4 0.0 1.1
23:35 9.8 9.0 95 1017.8 4.5 SW 5.4 0.0 1.1
23:36 9.8 9.0 95 1017.9 3.1 NW 5.4 0.0 1.1
23:37 9.8 9.0 95 1017.7 3.8 SW 5.4 0.0 1.1
23:38 9.8 9.0 95 1017.7 3.8 SW 5.4 0.0 1.1
23:39 9.8 9.0 95 1017.9 4.5 SW 5.4 0.0 1.1
23:40 9.8 9.0 95 1017.8 3.8 SW 5.4 0.0 1.1
23:41 9.8 9.0 95 1017.7 3.8 SW 5.4 0.0 1.1
23:42 9.8 9.0 95 1017.7 3.8 SW 5.4 0.0 1.1
23:43 9.8 9.0 95 1017.7 2.2 SSW 5.4 0.0 1.1
23:44 9.8 9.0 95 1017.6 2.2 SW 5.4 0.0 1.1
23:45 9.7 8.9 95 1017.7 2.2 S 5.4 0.0 1.1
23:46 9.7 8.9 95 1017.7 2.2 S 5.4 0.0 1.1
23:47 9.7 8.9 95 1017.9 2.2 S 5.4 0.0 1.1
23:48 9.7 8.9 95 1017.9 2.2 S 5.4 0.0 1.1
23:49 9.7 8.9 95 1017.8 3.1 S 4.5 0.0 1.1
23:50 9.7 8.9 95 1017.7 3.1 SSW 3.8 0.0 1.1
23:51 9.6 8.8 95 1017.8 3.1 SW 3.8 0.0 1.1
23:52 9.7 8.9 95 1017.7 3.1 SSW 3.8 0.0 1.1
23:53 9.6 8.8 95 1017.7 3.1 S 3.1 0.0 1.1
23:54 9.6 8.8 95 1017.6 3.1 S 3.1 0.0 1.1
23:55 9.6 8.8 95 1017.7 3.1 S 3.1 0.0 1.1
23:56 9.6 8.7 94 1017.7 2.2 S 3.1 0.0 1.1
23:57 9.6 8.7 94 1017.6 2.2 S 3.1 0.0 1.1
23:58 9.6 8.7 94 1017.7 3.1 S 3.1 0.0 1.1
23:59 9.6 8.7 94 1017.4 3.1 S 3.1 0.0 1.1

 

 

UK - WEATHER STATION TOPSITES - UK World Weather Websites

Copyright © Carnkie Weather 2009 - 2021.